M I D A S
Marine Information and Data Acquisition System
Tripno 1480 of the Zeeleeuw from 2008-05-06 12:10:16 to 2008-05-06 13:47:56
Back to CruiseResearch ActivitiesStationsMapUnderway DataData graphs

EquipmentUnitsComment
TimeDGPSUTC
LatitudeDGPSDM.mWGS84
LongitudeDGPSDM.mWGS84
TemperatureSBE03/SBE38deg celciusITS90
ConductivitySBE21S/mITS90
SalinitySBE21 Practical Salinity Units
ChlorophylAChelsea fluorimeterg/lCalibrated in Aceton
Missing or incorrect values are displayed as -999
Sea surface data collected by the RV Zeeleeuw from 2008-05-06 08:21:52 to 2008-05-06 14:00:11
                                                                                    Next 1000 lines
Time Latitude Longitude Temperature Conductivity Salinity ChlorophylA
2008-05-06 08:22:02 51°13.667 2°55.95 20.3894 0.093354 0.477617 -1.801521
2008-05-06 08:22:07 51°13.668 2°55.948 20.3195 0.093354 0.477617 -1.801521
2008-05-06 08:22:12 51°13.669 2°55.945 20.3732 0.093354 0.477625 -1.766697
2008-05-06 08:22:17 51°13.671 2°55.941 20.4293 0.093354 0.477632 -1.801521
2008-05-06 08:22:22 51°13.672 2°55.936 20.4226 0.093354 0.477632 -1.766697
2008-05-06 08:22:27 51°13.674 2°55.932 20.4315 0.093354 0.477648 -1.766697
2008-05-06 08:22:32 51°13.676 2°55.927 20.4041 0.093354 0.477648 -1.766697
2008-05-06 08:22:37 51°13.679 2°55.922 20.4388 0.093354 0.477648 -1.766697
2008-05-06 08:22:42 51°13.681 2°55.916 20.4384 0.093354 0.477655 -1.766697
2008-05-06 08:22:47 51°13.683 2°55.91 20.4369 0.093354 0.477663 -1.766697
2008-05-06 08:22:52 51°13.686 2°55.904 20.3794 0.093354 0.477663 -1.766697
2008-05-06 08:22:57 51°13.689 2°55.897 20.3913 0.093354 0.477663 -1.801521
2008-05-06 08:23:02 51°13.691 2°55.89 20.3974 0.093354 0.477663 -1.801521
2008-05-06 08:23:07 51°13.694 2°55.883 20.4134 0.093354 0.477663 -1.801521
2008-05-06 08:23:12 51°13.696 2°55.876 20.4467 0.093354 0.477678 -1.766697
2008-05-06 08:23:17 51°13.699 2°55.868 20.4586 0.093354 0.477678 -1.801521
2008-05-06 08:23:22 51°13.701 2°55.859 20.4561 0.093354 0.477686 -1.801521
2008-05-06 08:23:27 51°13.703 2°55.85 20.4513 0.093354 0.477694 -1.766697
2008-05-06 08:23:32 51°13.705 2°55.841 20.4518 0.093354 0.477702 -1.766697
2008-05-06 08:23:37 51°13.707 2°55.832 20.4509 0.093354 0.477702 -1.766697
2008-05-06 08:23:42 51°13.709 2°55.822 20.4494 0.093354 0.477709 -1.801521
2008-05-06 08:23:47 51°13.711 2°55.812 20.4488 0.093354 0.477717 -1.766697
2008-05-06 08:23:52 51°13.713 2°55.803 20.4586 0.093354 0.477725 -1.801521
2008-05-06 08:23:57 51°13.714 2°55.794 20.466 0.093354 0.477732 -1.801521
2008-05-06 08:24:02 51°13.716 2°55.785 20.458 0.093354 0.47774 -1.766697
2008-05-06 08:24:07 51°13.717 2°55.777 20.4651 0.093354 0.47774 -1.766697
2008-05-06 08:24:12 51°13.718 2°55.77 20.4601 0.093354 0.477748 -1.766697
2008-05-06 08:24:17 51°13.718 2°55.764 20.4602 0.093354 0.477748 -1.801521
2008-05-06 08:24:22 51°13.719 2°55.759 20.4607 0.093354 0.477748 -1.766697
2008-05-06 08:24:27 51°13.72 2°55.755 20.4641 0.093354 0.477748 -1.766697
2008-05-06 08:24:32 51°13.72 2°55.753 20.4709 0.093354 0.477748 -1.801521
2008-05-06 08:24:37 51°13.721 2°55.752 20.4401 0.093354 0.477748 -1.801521
2008-05-06 08:24:42 51°13.721 2°55.75 20.4205 0.093354 0.477748 -1.801521
2008-05-06 08:24:47 51°13.721 2°55.749 20.3286 0.093354 0.477755 -1.801521
2008-05-06 08:24:52 51°13.721 2°55.746 20.3559 0.093354 0.477763 -1.801521
2008-05-06 08:24:57 51°13.721 2°55.743 20.2648 0.093354 0.477771 -1.801521
2008-05-06 08:25:02 51°13.72 2°55.739 20.3992 0.093354 0.477778 -1.801521
2008-05-06 08:25:07 51°13.719 2°55.734 20.4052 0.093354 0.477778 -1.801521
2008-05-06 08:25:12 51°13.718 2°55.729 20.4447 0.093354 0.477786 -1.766697
2008-05-06 08:25:17 51°13.717 2°55.725 20.4431 0.093354 0.477794 -1.766697
2008-05-06 08:25:22 51°13.716 2°55.721 20.4304 0.093354 0.477794 -1.801521
2008-05-06 08:25:27 51°13.715 2°55.717 20.4483 0.093354 0.477802 -1.766697
2008-05-06 08:25:32 51°13.715 2°55.715 20.4728 0.093354 0.477802 -1.766697
2008-05-06 08:25:37 51°13.715 2°55.714 20.4981 0.093354 0.477802 -1.766697
2008-05-06 08:25:42 51°13.716 2°55.714 20.4955 0.093354 0.477809 -1.801521
2008-05-06 08:25:47 51°13.718 2°55.715 20.5053 0.093354 0.477802 -1.766697
2008-05-06 08:25:52 51°13.721 2°55.715 20.4633 0.093251 0.477255 -1.766697
2008-05-06 08:25:57 51°13.723 2°55.715 20.463 0.093251 0.477255 -1.766697
2008-05-06 08:26:02 51°13.726 2°55.714 20.4108 0.093354 0.477809 -1.766697
2008-05-06 08:26:07 51°13.728 2°55.714 20.4069 0.093354 0.477809 -1.766697
2008-05-06 08:26:12 51°13.731 2°55.713 20.4099 0.093354 0.477809 -1.801521
2008-05-06 08:26:17 51°13.734 2°55.712 20.4389 0.093251 0.477271 -1.801521
2008-05-06 08:26:22 51°13.737 2°55.71 20.4511 0.093354 0.477817 -1.766697
2008-05-06 08:26:27 51°13.74 2°55.709 20.4617 0.093354 0.477825 -1.801521
2008-05-06 08:26:32 51°13.743 2°55.706 20.441 0.093354 0.477832 -1.801521
2008-05-06 08:26:37 51°13.746 2°55.704 20.4338 0.093354 0.477832 -1.801521
2008-05-06 08:26:42 51°13.749 2°55.702 20.4232 0.093251 0.477294 -1.801521
2008-05-06 08:26:47 51°13.752 2°55.7 20.3868 0.093354 0.47784 -1.766697
2008-05-06 08:26:52 51°13.755 2°55.697 20.3857 0.093354 0.477848 -1.766697
2008-05-06 08:26:57 51°13.757 2°55.694 20.387 0.093354 0.477848 -1.801521
2008-05-06 08:27:02 51°13.76 2°55.691 20.3969 0.093251 0.477302 -1.766697
2008-05-06 08:27:07 51°13.763 2°55.688 20.3986 0.093251 0.477302 -1.766697
2008-05-06 08:27:12 51°13.766 2°55.684 20.4042 0.093251 0.477302 -1.801521
2008-05-06 08:27:17 51°13.769 2°55.681 20.399 0.093251 0.477302 -1.766697
2008-05-06 08:27:22 51°13.772 2°55.678 20.4015 0.093251 0.477309 -1.766697
2008-05-06 08:27:27 51°13.776 2°55.675 20.4003 0.093251 0.477317 -1.766697
2008-05-06 08:27:32 51°13.779 2°55.672 20.4024 0.093251 0.477317 -1.801521
2008-05-06 08:27:37 51°13.782 2°55.668 20.403 0.093251 0.477317 -1.801521
2008-05-06 08:27:42 51°13.786 2°55.665 20.4046 0.093251 0.477325 -1.801521
2008-05-06 08:27:47 51°13.79 2°55.662 20.4047 0.093251 0.477332 -1.766697
2008-05-06 08:27:52 51°13.794 2°55.659 20.4058 0.093251 0.47734 -1.801521
2008-05-06 08:27:57 51°13.798 2°55.657 20.4052 0.093251 0.47734 -1.766697
2008-05-06 08:28:02 51°13.802 2°55.654 20.4082 0.093251 0.477348 -1.801521
2008-05-06 08:28:07 51°13.806 2°55.651 20.4095 0.093251 0.477348 -1.801521
2008-05-06 08:28:12 51°13.81 2°55.648 20.4107 0.093251 0.477355 -1.801521
2008-05-06 08:28:17 51°13.814 2°55.646 20.409 0.093251 0.477363 -1.766697
2008-05-06 08:28:22 51°13.818 2°55.643 20.4089 0.093251 0.477363 -1.766697
2008-05-06 08:28:27 51°13.822 2°55.641 20.4045 0.093251 0.477371 -1.801521
2008-05-06 08:28:32 51°13.827 2°55.638 20.4017 0.093251 0.477378 -1.801521
2008-05-06 08:28:37 51°13.831 2°55.637 20.3946 0.093251 0.477378 -1.801521
2008-05-06 08:28:42 51°13.836 2°55.636 20.376 0.093251 0.477386 -1.801521
2008-05-06 08:28:47 51°13.841 2°55.635 20.365 0.093251 0.477394 -1.766697
2008-05-06 08:28:52 51°13.845 2°55.635 20.3604 0.093251 0.477402 -1.801521
2008-05-06 08:28:57 51°13.85 2°55.635 20.3635 0.093251 0.477402 -1.766697
2008-05-06 08:29:02 51°13.855 2°55.635 20.39 0.093251 0.477409 -1.801521
2008-05-06 08:29:07 51°13.859 2°55.635 20.4022 0.093251 0.477409 -1.801521
2008-05-06 08:29:12 51°13.864 2°55.636 20.4097 0.093251 0.477409 -1.801521
2008-05-06 08:29:17 51°13.869 2°55.636 20.4189 0.093251 0.477409 -1.766697
2008-05-06 08:29:22 51°13.873 2°55.636 20.4252 0.093251 0.477409 -1.801521
2008-05-06 08:29:27 51°13.878 2°55.637 20.4266 0.093251 0.477409 -1.766697
2008-05-06 08:29:32 51°13.883 2°55.637 20.4272 0.093251 0.477409 -1.766697
2008-05-06 08:29:37 51°13.888 2°55.638 20.419 0.093251 0.477409 -1.766697
2008-05-06 08:29:42 51°13.892 2°55.638 20.4092 0.093251 0.477409 -1.766697
2008-05-06 08:29:47 51°13.897 2°55.639 20.4115 0.093251 0.477417 -1.766697
2008-05-06 08:29:52 51°13.901 2°55.639 20.4092 0.093251 0.477425 -1.766697
2008-05-06 08:29:57 51°13.905 2°55.64 20.4118 0.093251 0.477425 -1.766697
2008-05-06 08:30:02 51°13.91 2°55.64 20.4108 0.093251 0.477432 -1.801521
2008-05-06 08:30:07 51°13.913 2°55.641 20.418 0.093251 0.477432 -1.801521
2008-05-06 08:30:12 51°13.916 2°55.641 20.4227 0.093251 0.47744 -1.801521
2008-05-06 08:30:17 51°13.919 2°55.642 20.4287 0.093251 0.477448 -1.801521
2008-05-06 08:30:22 51°13.922 2°55.642 20.4397 0.093251 0.477448 -1.766697
2008-05-06 08:30:27 51°13.924 2°55.642 20.4372 0.093251 0.477455 -1.801521
2008-05-06 08:30:32 51°13.926 2°55.642 20.4422 0.093251 0.477455 -1.801521
2008-05-06 08:30:37 51°13.928 2°55.642 20.4433 0.093251 0.477455 -1.801521
2008-05-06 08:30:42 51°13.93 2°55.642 20.4388 0.093251 0.477455 -1.801521
2008-05-06 08:30:47 51°13.932 2°55.641 20.4392 0.093251 0.477463 -1.766697
2008-05-06 08:30:52 51°13.934 2°55.641 20.4444 0.093251 0.477471 -1.801521
2008-05-06 08:30:57 51°13.935 2°55.641 20.439 0.093251 0.477471 -1.766697
2008-05-06 08:31:02 51°13.937 2°55.641 20.4396 0.093251 0.477478 -1.801521
2008-05-06 08:31:07 51°13.939 2°55.64 20.4398 0.093251 0.477478 -1.801521
2008-05-06 08:31:12 51°13.94 2°55.64 20.4389 0.093251 0.477486 -1.766697
2008-05-06 08:31:17 51°13.942 2°55.64 20.4375 0.093251 0.477494 -1.801521
2008-05-06 08:31:22 51°13.943 2°55.639 20.4377 0.093251 0.477494 -1.801521
2008-05-06 08:31:27 51°13.944 2°55.639 20.4367 0.093251 0.477494 -1.766697
2008-05-06 08:31:32 51°13.946 2°55.638 20.4366 0.093251 0.477502 -1.801521
2008-05-06 08:31:37 51°13.947 2°55.638 20.4349 0.093251 0.477502 -1.801521
2008-05-06 08:31:42 51°13.947 2°55.638 20.4356 0.093251 0.477502 -1.801521
2008-05-06 08:31:47 51°13.948 2°55.637 20.436 0.093251 0.477509 -1.801521
2008-05-06 08:31:52 51°13.949 2°55.637 20.4366 0.093251 0.477509 -1.766697
2008-05-06 08:31:57 51°13.95 2°55.636 20.4358 0.093251 0.477517 -1.801521
2008-05-06 08:32:02 51°13.951 2°55.636 20.436 0.093251 0.477517 -1.801521
2008-05-06 08:32:07 51°13.951 2°55.636 20.4351 0.093251 0.477517 -1.801521
2008-05-06 08:32:12 51°13.951 2°55.636 20.4357 0.093251 0.477532 -1.801521
2008-05-06 08:32:17 51°13.951 2°55.635 20.4295 0.093251 0.47754 -1.766697
2008-05-06 08:32:22 51°13.951 2°55.635 20.4182 0.093251 0.477548 -1.766697
2008-05-06 08:32:27 51°13.951 2°55.635 20.4032 0.093251 0.477555 -1.801521
2008-05-06 08:32:32 51°13.951 2°55.635 20.4201 0.093251 0.477555 -1.766697
2008-05-06 08:32:37 51°13.95 2°55.635 20.4446 0.093251 0.477555 -1.766697
2008-05-06 08:32:42 51°13.95 2°55.635 20.4499 0.093251 0.477563 -1.766697
2008-05-06 08:32:47 51°13.95 2°55.635 20.4532 0.093251 0.477571 -1.801521
2008-05-06 08:32:52 51°13.949 2°55.635 20.4432 0.093251 0.477578 -1.766697
2008-05-06 08:32:57 51°13.949 2°55.635 20.4409 0.093251 0.477586 -1.801521
2008-05-06 08:33:02 51°13.949 2°55.635 20.4371 0.093251 0.477594 -1.801521
2008-05-06 08:33:07 51°13.949 2°55.634 20.4371 0.093251 0.477594 -1.801521
2008-05-06 08:33:12 51°13.949 2°55.634 20.4368 0.093251 0.477602 -1.766697
2008-05-06 08:33:17 51°13.949 2°55.634 20.4376 0.093251 0.477609 -1.801521
2008-05-06 08:33:22 51°13.949 2°55.634 20.4394 0.093251 0.477617 -1.766697
2008-05-06 08:33:27 51°13.949 2°55.634 20.4433 0.093251 0.477625 -1.801521
2008-05-06 08:33:32 51°13.949 2°55.633 20.4414 0.093251 0.477632 -1.801521
2008-05-06 08:33:37 51°13.949 2°55.633 20.4449 0.093251 0.477632 -1.801521
2008-05-06 08:33:42 51°13.949 2°55.633 20.445 0.093251 0.47764 -1.766697
2008-05-06 08:33:47 51°13.949 2°55.633 20.4455 0.093251 0.477648 -1.766697
2008-05-06 08:33:52 51°13.949 2°55.632 20.444 0.093251 0.477655 -1.766697
2008-05-06 08:33:57 51°13.949 2°55.632 20.4426 0.093251 0.477663 -1.801521
2008-05-06 08:34:02 51°13.949 2°55.632 20.4407 0.093251 0.477671 -1.801521
2008-05-06 08:34:07 51°13.949 2°55.632 20.4431 0.093251 0.477671 -1.801521
2008-05-06 08:34:12 51°13.949 2°55.631 20.4466 0.093251 0.477679 -1.766697
2008-05-06 08:34:17 51°13.949 2°55.631 20.4527 0.093251 0.477679 -1.766697
2008-05-06 08:34:22 51°13.95 2°55.631 20.4533 0.093251 0.477686 -1.766697
2008-05-06 08:34:27 51°13.95 2°55.631 20.4532 0.093251 0.477694 -1.766697
2008-05-06 08:34:32 51°13.95 2°55.631 20.4529 0.093251 0.477702 -1.766697
2008-05-06 08:34:37 51°13.95 2°55.63 20.4508 0.093251 0.477702 -1.766697
2008-05-06 08:34:42 51°13.95 2°55.63 20.4499 0.093251 0.477709 -1.801521
2008-05-06 08:34:47 51°13.95 2°55.63 20.4486 0.093251 0.477717 -1.766697
2008-05-06 08:34:52 51°13.95 2°55.63 20.4496 0.093251 0.477725 -1.766697
2008-05-06 08:34:57 51°13.951 2°55.629 20.4484 0.093251 0.477732 -1.766697
2008-05-06 08:35:02 51°13.951 2°55.629 20.447 0.093251 0.477732 -1.766697
2008-05-06 08:35:07 51°13.951 2°55.629 20.4479 0.093251 0.477732 -1.766697
2008-05-06 08:35:12 51°13.951 2°55.629 20.4483 0.093251 0.47774 -1.766697
2008-05-06 08:35:17 51°13.951 2°55.629 20.45 0.093251 0.477756 -1.766697
2008-05-06 08:35:22 51°13.952 2°55.628 20.4501 0.093251 0.477756 -1.766697
2008-05-06 08:35:27 51°13.952 2°55.628 20.4503 0.093251 0.477771 -1.801521
2008-05-06 08:35:32 51°13.952 2°55.628 20.4498 0.093251 0.477771 -1.766697
2008-05-06 08:35:37 51°13.952 2°55.628 20.4485 0.093251 0.477771 -1.766697
2008-05-06 08:35:42 51°13.952 2°55.628 20.4493 0.093251 0.477779 -1.766697
2008-05-06 08:35:47 51°13.952 2°55.628 20.451 0.093251 0.477786 -1.801521
2008-05-06 08:35:52 51°13.953 2°55.628 20.453 0.093251 0.477794 -1.766697
2008-05-06 08:35:57 51°13.953 2°55.627 20.4544 0.093251 0.477802 -1.766697
2008-05-06 08:36:02 51°13.953 2°55.627 20.4539 0.093251 0.477802 -1.766697
2008-05-06 08:36:07 51°13.953 2°55.627 20.4538 0.093251 0.477802 -1.766697
2008-05-06 08:36:12 51°13.953 2°55.627 20.4531 0.093251 0.477817 -1.801521
2008-05-06 08:36:17 51°13.953 2°55.626 20.453 0.093251 0.477825 -1.801521
2008-05-06 08:36:22 51°13.953 2°55.626 20.4516 0.093251 0.477825 -1.801521
2008-05-06 08:36:27 51°13.953 2°55.626 20.4511 0.093251 0.47784 -1.766697
2008-05-06 08:36:32 51°13.953 2°55.626 20.4504 0.093251 0.47784 -1.766697
2008-05-06 08:36:37 51°13.953 2°55.626 20.4544 0.093251 0.47784 -1.766697
2008-05-06 08:36:42 51°13.953 2°55.625 20.4528 0.093251 0.477848 -1.766697
2008-05-06 08:36:47 51°13.954 2°55.625 20.4523 0.093251 0.477856 -1.766697
2008-05-06 08:36:52 51°13.954 2°55.625 20.4538 0.093251 0.477863 -1.766697
2008-05-06 08:36:57 51°13.954 2°55.624 20.4514 0.093251 0.477871 -1.766697
2008-05-06 08:37:02 51°13.954 2°55.624 20.4497 0.093251 0.477879 -1.766697
2008-05-06 08:37:07 51°13.954 2°55.624 20.4503 0.093251 0.477879 -1.766697
2008-05-06 08:37:12 51°13.954 2°55.623 20.4514 0.093251 0.477887 -1.766697
2008-05-06 08:37:17 51°13.955 2°55.623 20.4523 0.093251 0.477894 -1.766697
2008-05-06 08:37:22 51°13.955 2°55.622 20.4532 0.093251 0.477902 -1.766697
2008-05-06 08:37:27 51°13.956 2°55.622 20.4605 0.093251 0.47791 -1.766697
2008-05-06 08:37:32 51°13.956 2°55.621 20.4811 0.093251 0.47791 -1.766697
2008-05-06 08:37:37 51°13.957 2°55.62 20.5069 0.093251 0.47791 -1.766697
2008-05-06 08:37:42 51°13.959 2°55.618 20.5421 0.093251 0.477925 -1.766697
2008-05-06 08:37:47 51°13.962 2°55.615 20.5494 0.093251 0.477925 -1.766697
2008-05-06 08:37:52 51°13.967 2°55.611 20.5433 0.093251 0.477933 -1.766697
2008-05-06 08:37:57 51°13.971 2°55.606 20.5365 0.093251 0.477941 -1.766697
2008-05-06 08:38:02 51°13.977 2°55.6 20.5334 0.093251 0.477948 -1.801521
2008-05-06 08:38:07 51°13.983 2°55.593 20.5034 0.093251 0.477948 -1.801521
2008-05-06 08:38:12 51°13.989 2°55.586 20.4767 0.093251 0.477948 -1.766697
2008-05-06 08:38:17 51°13.995 2°55.578 20.4424 0.093251 0.477956 -1.766697
2008-05-06 08:38:22 51°14.002 2°55.569 20.4323 0.093251 0.477964 -1.801521
2008-05-06 08:38:27 51°14.01 2°55.56 20.4245 0.093251 0.477971 -1.766697
2008-05-06 08:38:32 51°14.017 2°55.551 20.4185 0.093251 0.477979 -1.766697
2008-05-06 08:38:37 51°14.025 2°55.541 20.405 0.093251 0.477979 -1.766697
2008-05-06 08:38:42 51°14.033 2°55.531 20.4059 0.093251 0.477987 -1.766697
2008-05-06 08:38:47 51°14.042 2°55.521 20.4022 0.093251 0.477995 -1.766697
2008-05-06 08:38:52 51°14.05 2°55.51 20.3882 0.093251 0.477995 -1.766697
2008-05-06 08:38:57 51°14.059 2°55.5 20.3786 0.093251 0.478002 -1.801521
2008-05-06 08:39:02 51°14.068 2°55.49 20.3927 0.093251 0.47801 -1.766697
2008-05-06 08:39:07 51°14.077 2°55.479 20.4073 0.093251 0.47801 -1.766697
2008-05-06 08:39:12 51°14.086 2°55.468 20.4115 0.093251 0.47801 -1.766697
2008-05-06 08:39:17 51°14.095 2°55.457 20.3734 0.093251 0.478018 -1.766697
2008-05-06 08:39:22 51°14.104 2°55.446 20.333 0.093251 0.478018 -1.801521
2008-05-06 08:39:27 51°14.114 2°55.436 20.3737 0.093251 0.478025 -1.766697
2008-05-06 08:39:32 51°14.123 2°55.425 20.3605 0.093148 0.477478 -1.766697
2008-05-06 08:39:37 51°14.133 2°55.415 20.3484 0.093148 0.477478 -1.766697
2008-05-06 08:39:42 51°14.143 2°55.405 20.4398 0.093251 0.478033 -1.766697
2008-05-06 08:39:47 51°14.152 2°55.395 20.4302 0.093148 0.477494 -1.766697
2008-05-06 08:39:52 51°14.162 2°55.385 20.4065 0.093148 0.477509 -1.801521
2008-05-06 08:39:57 51°14.172 2°55.374 20.4066 0.093148 0.477509 -1.801521
2008-05-06 08:40:02 51°14.181 2°55.364 20.4195 0.093148 0.477517 -1.766697
2008-05-06 08:40:07 51°14.191 2°55.354 20.446 0.093148 0.477517 -1.766697
2008-05-06 08:40:12 51°14.2 2°55.343 20.4887 0.093148 0.477517 -1.766697
2008-05-06 08:40:17 51°14.21 2°55.332 20.455 0.093148 0.477525 -1.766697
2008-05-06 08:40:22 51°14.219 2°55.321 20.4666 0.093148 0.477532 -1.801521
2008-05-06 08:40:27 51°14.228 2°55.31 20.4005 0.093148 0.477532 -1.766697
2008-05-06 08:40:32 51°14.236 2°55.298 20.4438 0.093148 0.477548 -1.801521
2008-05-06 08:40:36 51°14.243 2°55.289 20.4583 0.093148 0.477548 -1.801521
2008-05-06 08:40:42 51°14.253 2°55.275 20.4552 0.093148 0.477548 -1.766697
2008-05-06 08:40:47 51°14.26 2°55.264 20.392 0.093148 0.477555 -1.766697
2008-05-06 08:40:52 51°14.268 2°55.253 20.413 0.093148 0.477555 -1.766697
2008-05-06 08:40:57 51°14.275 2°55.241 20.4177 0.093148 0.477563 -1.766697
2008-05-06 08:41:02 51°14.283 2°55.23 20.4481 0.093148 0.477571 -1.766697
2008-05-06 08:41:07 51°14.29 2°55.218 20.429 0.093148 0.477571 -1.766697
2008-05-06 08:41:12 51°14.297 2°55.207 20.4285 0.093148 0.477563 -1.766697
2008-05-06 08:41:17 51°14.304 2°55.196 20.424 0.093148 0.477579 -1.766697
2008-05-06 08:41:21 51°14.31 2°55.186 20.4196 0.093148 0.477579 -1.766697
2008-05-06 08:41:27 51°14.318 2°55.172 20.4258 0.093148 0.477579 -1.766697
2008-05-06 08:41:32 51°14.325 2°55.161 20.4244 0.093148 0.477586 -1.766697
2008-05-06 08:41:37 51°14.331 2°55.149 20.4402 0.093148 0.477586 -1.766697
2008-05-06 08:41:42 51°14.338 2°55.137 20.4625 0.093148 0.477594 -1.766697
2008-05-06 08:41:47 51°14.344 2°55.124 20.4567 0.093148 0.477594 -1.766697
2008-05-06 08:41:52 51°14.35 2°55.111 20.4343 0.093148 0.477602 -1.801521
2008-05-06 08:41:57 51°14.357 2°55.098 20.458 0.093148 0.477602 -1.801521
2008-05-06 08:42:02 51°14.363 2°55.083 20.4627 0.093148 0.477602 -1.766697
2008-05-06 08:42:07 51°14.369 2°55.069 20.4838 0.093148 0.477602 -1.766697
2008-05-06 08:42:12 51°14.375 2°55.053 20.4482 0.093148 0.477617 -1.801521
2008-05-06 08:42:17 51°14.38 2°55.037 20.4248 0.093148 0.477633 -1.801521
2008-05-06 08:42:22 51°14.386 2°55.02 20.378 0.093148 0.477625 -1.801521
2008-05-06 08:42:27 51°14.392 2°55.002 20.4138 0.093148 0.477633 -1.766697
2008-05-06 08:42:32 51°14.398 2°54.983 20.3965 0.093148 0.477633 -1.801521
2008-05-06 08:42:37 51°14.404 2°54.964 20.4258 0.093148 0.477633 -1.801521
2008-05-06 08:42:42 51°14.41 2°54.944 20.3798 0.093148 0.477633 -1.766697
2008-05-06 08:42:47 51°14.417 2°54.924 20.4124 0.093148 0.477648 -1.766697
2008-05-06 08:42:52 51°14.424 2°54.902 20.3907 0.093148 0.477648 -1.801521
2008-05-06 08:42:56 51°14.43 2°54.885 20.3618 0.093148 0.477648 -1.766697
2008-05-06 08:43:02 51°14.439 2°54.859 20.3808 0.093148 0.477656 -1.801521
2008-05-06 08:43:07 51°14.447 2°54.837 20.4191 0.093148 0.477656 -1.801521
2008-05-06 08:43:12 51°14.454 2°54.813 20.4449 0.093148 0.477663 -1.801521
2008-05-06 08:43:17 51°14.461 2°54.788 20.3524 0.093148 0.477679 -1.766697
2008-05-06 08:43:22 51°14.468 2°54.764 20.3991 0.093148 0.477679 -1.766697
2008-05-06 08:43:27 51°14.474 2°54.738 20.3425 0.093148 0.477687 -1.766697
2008-05-06 08:43:32 51°14.481 2°54.712 20.3795 0.093148 0.477687 -1.766697
2008-05-06 08:43:37 51°14.487 2°54.686 20.3958 0.093148 0.477687 -1.766697
2008-05-06 08:43:41 51°14.492 2°54.665 20.359 0.093148 0.477694 -1.801521
2008-05-06 08:43:47 51°14.499 2°54.633 20.3741 0.093148 0.477694 -1.766697
2008-05-06 08:43:52 51°14.505 2°54.606 20.3533 0.093148 0.47771 -1.766697
2008-05-06 08:43:57 51°14.511 2°54.579 20.3932 0.093148 0.477717 -1.766697
2008-05-06 08:44:02 51°14.516 2°54.552 20.3724 0.093148 0.477725 -1.766697
2008-05-06 08:44:07 51°14.521 2°54.525 20.3851 0.093148 0.477725 -1.766697
2008-05-06 08:44:12 51°14.526 2°54.497 20.3795 0.093148 0.477725 -1.766697
2008-05-06 08:44:17 51°14.532 2°54.469 20.3636 0.093148 0.477733 -1.801521
2008-05-06 08:44:22 51°14.536 2°54.442 20.3503 0.093148 0.477741 -1.766697
2008-05-06 08:44:27 51°14.541 2°54.414 20.3824 0.093148 0.477741 -1.766697
2008-05-06 08:44:32 51°14.546 2°54.386 20.3943 0.093148 0.477741 -1.766697
2008-05-06 08:44:37 51°14.549 2°54.357 20.3695 0.093148 0.477741 -1.766697
2008-05-06 08:44:42 51°14.553 2°54.329 20.3741 0.093148 0.477756 -1.766697
2008-05-06 08:44:47 51°14.557 2°54.3 20.3132 0.093148 0.477756 -1.766697
2008-05-06 08:44:52 51°14.56 2°54.272 20.367 0.093148 0.477764 -1.766697
2008-05-06 08:44:57 51°14.563 2°54.243 20.3744 0.093148 0.477764 -1.801521
2008-05-06 08:45:02 51°14.566 2°54.214 20.3374 0.093148 0.477764 -1.766697
2008-05-06 08:45:07 51°14.569 2°54.185 20.3259 0.093148 0.477764 -1.766697
2008-05-06 08:45:12 51°14.572 2°54.156 20.3437 0.093148 0.477771 -1.801521
2008-05-06 08:45:17 51°14.575 2°54.127 20.3158 0.093148 0.477787 -1.801521
2008-05-06 08:45:22 51°14.578 2°54.098 20.3536 0.093148 0.477795 -1.801521
2008-05-06 08:45:27 51°14.581 2°54.069 20.3443 0.093148 0.477795 -1.766697
2008-05-06 08:45:32 51°14.584 2°54.04 20.3299 0.093148 0.477795 -1.801521
2008-05-06 08:45:37 51°14.587 2°54.012 20.3334 0.093148 0.477795 -1.801521
2008-05-06 08:45:41 51°14.59 2°53.989 20.3524 0.093148 0.47781 -1.801521
2008-05-06 08:45:47 51°14.593 2°53.954 20.3282 0.093148 0.477818 -1.766697
2008-05-06 08:45:52 51°14.597 2°53.926 20.287 0.093148 0.477818 -1.766697
2008-05-06 08:45:57 51°14.6 2°53.897 20.3586 0.093148 0.477825 -1.801521
2008-05-06 08:46:02 51°14.602 2°53.869 20.3295 0.093148 0.477841 -1.801521
2008-05-06 08:46:07 51°14.605 2°53.84 20.3323 0.093148 0.477841 -1.801521
2008-05-06 08:46:12 51°14.607 2°53.811 20.3465 0.093148 0.477841 -1.801521
2008-05-06 08:46:17 51°14.609 2°53.783 20.3225 0.093148 0.477849 -1.801521
2008-05-06 08:46:22 51°14.611 2°53.755 20.3232 0.093148 0.477849 -1.801521
2008-05-06 08:46:27 51°14.612 2°53.726 20.3397 0.093148 0.477864 -1.801521
2008-05-06 08:46:32 51°14.614 2°53.698 20.3214 0.093148 0.477872 -1.801521
2008-05-06 08:46:37 51°14.616 2°53.669 20.299 0.093148 0.477872 -1.801521
2008-05-06 08:46:42 51°14.618 2°53.641 20.3317 0.093148 0.477887 -1.766697
2008-05-06 08:46:47 51°14.619 2°53.613 20.3436 0.093148 0.477887 -1.801521
2008-05-06 08:46:52 51°14.621 2°53.585 20.3293 0.093148 0.477895 -1.766697
2008-05-06 08:46:57 51°14.623 2°53.557 20.3004 0.093148 0.47791 -1.766697
2008-05-06 08:47:02 51°14.624 2°53.529 20.2943 0.093148 0.477918 -1.801521
2008-05-06 08:47:07 51°14.626 2°53.501 20.3133 0.093148 0.477918 -1.801521
2008-05-06 08:47:12 51°14.628 2°53.473 20.3056 0.093148 0.477918 -1.766697
2008-05-06 08:47:16 51°14.629 2°53.451 20.3224 0.093148 0.477926 -1.801521
2008-05-06 08:47:22 51°14.631 2°53.417 20.3277 0.093148 0.477941 -1.801521
2008-05-06 08:47:27 51°14.633 2°53.389 20.3394 0.093148 0.477949 -1.801521
2008-05-06 08:47:32 51°14.634 2°53.36 20.3185 0.093148 0.477957 -1.766697
2008-05-06 08:47:37 51°14.635 2°53.332 20.3403 0.093148 0.477957 -1.766697
2008-05-06 08:47:42 51°14.636 2°53.303 20.3255 0.093148 0.477972 -1.766697
2008-05-06 08:47:47 51°14.637 2°53.275 20.3305 0.093148 0.47798 -1.766697
2008-05-06 08:47:52 51°14.638 2°53.246 20.3158 0.093148 0.477988 -1.766697
2008-05-06 08:47:57 51°14.639 2°53.217 20.3302 0.093148 0.477995 -1.766697
2008-05-06 08:48:02 51°14.64 2°53.189 20.3033 0.093148 0.478011 -1.766697
2008-05-06 08:48:07 51°14.64 2°53.16 20.2995 0.093148 0.478011 -1.766697
2008-05-06 08:48:12 51°14.641 2°53.132 20.2999 0.093148 0.478019 -1.766697
2008-05-06 08:48:17 51°14.642 2°53.103 20.2904 0.093148 0.478034 -1.801521
2008-05-06 08:48:22 51°14.643 2°53.074 20.3268 0.093148 0.478042 -1.801521
2008-05-06 08:48:27 51°14.644 2°53.046 20.3117 0.093148 0.478049 -1.766697
2008-05-06 08:48:32 51°14.645 2°53.017 20.3159 0.093148 0.478049 -1.766697
2008-05-06 08:48:37 51°14.646 2°52.988 20.3211 0.093148 0.478049 -1.766697
2008-05-06 08:48:42 51°14.647 2°52.959 20.3267 0.093148 0.478065 -1.801521
2008-05-06 08:48:47 51°14.647 2°52.93 20.2954 0.093148 0.478073 -1.801521
2008-05-06 08:48:52 51°14.648 2°52.901 20.3156 0.093148 0.478088 -1.801521
2008-05-06 08:48:57 51°14.648 2°52.872 20.2907 0.093148 0.478096 -1.766697
2008-05-06 08:49:02 51°14.648 2°52.843 20.3152 0.093148 0.478104 -1.766697
2008-05-06 08:49:07 51°14.647 2°52.814 20.3109 0.093148 0.478104 -1.766697
2008-05-06 08:49:12 51°14.647 2°52.785 20.298 0.093148 0.478111 -1.801521
2008-05-06 08:49:17 51°14.647 2°52.755 20.3163 0.093148 0.478127 -1.766697
2008-05-06 08:49:22 51°14.646 2°52.726 20.3285 0.093148 0.478127 -1.766697
2008-05-06 08:49:27 51°14.645 2°52.697 20.3191 0.093045 0.477602 -1.766697
2008-05-06 08:49:32 51°14.644 2°52.668 20.3086 0.093148 0.47815 -1.766697
2008-05-06 08:49:37 51°14.642 2°52.638 20.3134 0.093148 0.47815 -1.766697
2008-05-06 08:49:42 51°14.641 2°52.609 20.317 0.093045 0.477625 -1.766697
2008-05-06 08:49:47 51°14.64 2°52.58 20.3011 0.093045 0.477633 -1.766697
2008-05-06 08:49:52 51°14.638 2°52.551 20.2942 0.093045 0.477641 -1.766697
2008-05-06 08:49:57 51°14.636 2°52.522 20.3016 0.093045 0.477649 -1.801521
2008-05-06 08:50:02 51°14.634 2°52.493 20.3168 0.093045 0.477664 -1.801521
2008-05-06 08:50:07 51°14.632 2°52.463 20.3132 0.093045 0.477664 -1.801521
2008-05-06 08:50:12 51°14.629 2°52.434 20.3034 0.093045 0.477672 -1.766697
2008-05-06 08:50:17 51°14.627 2°52.406 20.2971 0.093045 0.477672 -1.766697
2008-05-06 08:50:22 51°14.624 2°52.377 20.2888 0.093045 0.477687 -1.801521
2008-05-06 08:50:27 51°14.621 2°52.348 20.3029 0.093045 0.477687 -1.766697
2008-05-06 08:50:32 51°14.618 2°52.319 20.2828 0.093045 0.477703 -1.801521
2008-05-06 08:50:37 51°14.615 2°52.29 20.3081 0.093045 0.477703 -1.801521
2008-05-06 08:50:42 51°14.612 2°52.261 20.2976 0.093045 0.477718 -1.801521
2008-05-06 08:50:47 51°14.609 2°52.231 20.2957 0.093045 0.477726 -1.766697
2008-05-06 08:50:52 51°14.606 2°52.202 20.305 0.093045 0.477733 -1.801521
2008-05-06 08:50:57 51°14.603 2°52.173 20.3135 0.093045 0.477749 -1.801521
2008-05-06 08:51:02 51°14.6 2°52.144 20.2991 0.093045 0.477757 -1.801521
2008-05-06 08:51:07 51°14.598 2°52.115 20.2806 0.093045 0.477757 -1.801521
2008-05-06 08:51:12 51°14.595 2°52.086 20.2979 0.093045 0.477772 -1.801521
2008-05-06 08:51:17 51°14.592 2°52.057 20.2932 0.093045 0.47778 -1.766697
2008-05-06 08:51:22 51°14.589 2°52.027 20.3055 0.093045 0.477788 -1.801521
2008-05-06 08:51:27 51°14.586 2°51.998 20.2836 0.093045 0.477795 -1.766697
2008-05-06 08:51:32 51°14.584 2°51.969 20.2792 0.093045 0.477811 -1.766697
2008-05-06 08:51:37 51°14.581 2°51.94 20.283 0.093045 0.477811 -1.766697
2008-05-06 08:51:42 51°14.578 2°51.911 20.284 0.093045 0.477826 -1.766697
2008-05-06 08:51:47 51°14.575 2°51.882 20.2687 0.093045 0.477834 -1.801521
2008-05-06 08:51:52 51°14.573 2°51.853 20.2824 0.093045 0.477842 -1.766697
2008-05-06 08:51:57 51°14.57 2°51.824 20.293 0.093045 0.477842 -1.801521
2008-05-06 08:52:02 51°14.567 2°51.795 20.2793 0.093045 0.477857 -1.801521
2008-05-06 08:52:07 51°14.565 2°51.766 20.2877 0.093045 0.477857 -1.801521
2008-05-06 08:52:12 51°14.562 2°51.737 20.2876 0.093045 0.47788 -1.801521
2008-05-06 08:52:17 51°14.56 2°51.708 20.2863 0.093045 0.477896 -1.801521
2008-05-06 08:52:22 51°14.557 2°51.679 20.2855 0.093045 0.477904 -1.801521
2008-05-06 08:52:27 51°14.555 2°51.65 20.2954 0.093045 0.477911 -1.801521
2008-05-06 08:52:32 51°14.552 2°51.621 20.2944 0.093045 0.477919 -1.766697
2008-05-06 08:52:37 51°14.549 2°51.591 20.2928 0.093045 0.477919 -1.766697
2008-05-06 08:52:42 51°14.547 2°51.562 20.296 0.093045 0.477927 -1.766697
2008-05-06 08:52:47 51°14.544 2°51.533 20.2581 0.093045 0.47795 -1.766697
2008-05-06 08:52:52 51°14.542 2°51.504 20.2619 0.093045 0.477965 -1.766697
2008-05-06 08:52:57 51°14.54 2°51.475 20.2598 0.093045 0.477973 -1.801521
2008-05-06 08:53:02 51°14.537 2°51.447 20.2636 0.093045 0.477981 -1.766697
2008-05-06 08:53:07 51°14.535 2°51.422 20.2581 0.093045 0.477981 -1.766697
2008-05-06 08:53:12 51°14.532 2°51.397 20.2774 0.093045 0.478004 -1.766697
2008-05-06 08:53:17 51°14.53 2°51.375 20.2753 0.093045 0.47802 -1.801521
2008-05-06 08:53:22 51°14.528 2°51.354 20.2861 0.093045 0.47802 -1.801521
2008-05-06 08:53:27 51°14.526 2°51.334 20.2773 0.093045 0.478027 -1.766697
2008-05-06 08:53:32 51°14.523 2°51.316 20.2962 0.093045 0.478043 -1.801521
2008-05-06 08:53:37 51°14.52 2°51.3 20.3044 0.093045 0.478043 -1.801521
2008-05-06 08:53:42 51°14.517 2°51.285 20.2982 0.093045 0.478066 -1.766697
2008-05-06 08:53:47 51°14.514 2°51.27 20.2917 0.093045 0.478074 -1.766697
2008-05-06 08:53:52 51°14.511 2°51.257 20.2845 0.093045 0.478081 -1.766697
2008-05-06 08:53:57 51°14.508 2°51.245 20.2887 0.093045 0.478097 -1.801521
2008-05-06 08:54:02 51°14.507 2°51.233 20.2605 0.093045 0.478112 -1.766697
2008-05-06 08:54:07 51°14.505 2°51.222 20.2763 0.093045 0.478112 -1.766697
2008-05-06 08:54:12 51°14.504 2°51.213 20.2863 0.093045 0.478112 -1.801521
2008-05-06 08:54:17 51°14.503 2°51.204 20.2928 0.093045 0.478128 -1.766697
2008-05-06 08:54:22 51°14.502 2°51.195 20.2953 0.093045 0.478143 -1.766697
2008-05-06 08:54:27 51°14.501 2°51.187 20.2984 0.093045 0.478159 -1.766697
2008-05-06 08:54:32 51°14.5 2°51.18 20.2919 0.093045 0.478167 -1.801521
2008-05-06 08:54:37 51°14.499 2°51.172 20.2905 0.093045 0.478167 -1.801521
2008-05-06 08:54:42 51°14.498 2°51.165 20.2961 0.093045 0.478182 -1.801521
2008-05-06 08:54:47 51°14.496 2°51.158 20.2811 0.092942 0.477634 -1.766697
2008-05-06 08:54:52 51°14.495 2°51.151 20.2971 0.092942 0.477634 -1.766697
2008-05-06 08:54:57 51°14.494 2°51.144 20.2988 0.092942 0.477657 -1.801521
2008-05-06 08:55:02 51°14.493 2°51.137 20.2972 0.092942 0.477665 -1.801521
2008-05-06 08:55:07 51°14.491 2°51.131 20.2935 0.092942 0.477665 -1.801521
2008-05-06 08:55:12 51°14.49 2°51.124 20.2922 0.092942 0.477672 -1.801521
2008-05-06 08:55:17 51°14.489 2°51.118 20.293 0.092942 0.477696 -1.766697
2008-05-06 08:55:22 51°14.487 2°51.112 20.2936 0.092942 0.477711 -1.801521
2008-05-06 08:55:27 51°14.486 2°51.106 20.2971 0.092942 0.477727 -1.766697
2008-05-06 08:55:32 51°14.485 2°51.1 20.3006 0.092942 0.47775 -1.766697
2008-05-06 08:55:37 51°14.483 2°51.093 20.3063 0.092942 0.47775 -1.766697
2008-05-06 08:55:42 51°14.482 2°51.088 20.3034 0.092942 0.47775 -1.801521
2008-05-06 08:55:47 51°14.481 2°51.082 20.3051 0.092942 0.477758 -1.766697
2008-05-06 08:55:52 51°14.479 2°51.076 20.2915 0.092942 0.477773 -1.766697
2008-05-06 08:55:57 51°14.478 2°51.07 20.3063 0.092942 0.477765 -1.801521
2008-05-06 08:56:02 51°14.477 2°51.065 20.2986 0.092942 0.477781 -1.766697
2008-05-06 08:56:07 51°14.476 2°51.059 20.2995 0.092942 0.477781 -1.766697
2008-05-06 08:56:12 51°14.474 2°51.053 20.3036 0.092942 0.477773 -1.766697
2008-05-06 08:56:17 51°14.473 2°51.046 20.304 0.092942 0.477789 -1.801521
2008-05-06 08:56:22 51°14.472 2°51.039 20.3041 0.092942 0.477796 -1.766697
2008-05-06 08:56:27 51°14.47 2°51.031 20.3052 0.092942 0.477804 -1.801521
2008-05-06 08:56:32 51°14.469 2°51.023 20.2953 0.092942 0.477819 -1.766697
2008-05-06 08:56:36 51°14.468 2°51.015 20.304 0.092942 0.477819 -1.766697
2008-05-06 08:56:42 51°14.466 2°51.004 20.2963 0.092942 0.477819 -1.766697
2008-05-06 08:56:47 51°14.464 2°50.994 20.3072 0.092942 0.477843 -1.766697
2008-05-06 08:56:52 51°14.463 2°50.984 20.295 0.092942 0.477843 -1.766697
2008-05-06 08:56:57 51°14.461 2°50.974 20.2841 0.092942 0.477858 -1.766697
2008-05-06 08:57:02 51°14.46 2°50.964 20.2969 0.092942 0.477866 -1.766697
2008-05-06 08:57:07 51°14.459 2°50.954 20.2885 0.092942 0.477866 -1.766697
2008-05-06 08:57:12 51°14.458 2°50.944 20.305 0.092942 0.477881 -1.766697
2008-05-06 08:57:17 51°14.457 2°50.935 20.3011 0.092942 0.477874 -1.766697
2008-05-06 08:57:21 51°14.456 2°50.927 20.3012 0.092942 0.477889 -1.766697
2008-05-06 08:57:27 51°14.455 2°50.916 20.295 0.092942 0.477889 -1.801521
2008-05-06 08:57:32 51°14.455 2°50.907 20.3011 0.092942 0.477905 -1.766697
2008-05-06 08:57:37 51°14.454 2°50.898 20.2989 0.092942 0.477905 -1.766697
2008-05-06 08:57:42 51°14.454 2°50.89 20.3041 0.092942 0.477905 -1.801521
2008-05-06 08:57:47 51°14.453 2°50.881 20.3026 0.092942 0.477912 -1.801521
2008-05-06 08:57:52 51°14.453 2°50.873 20.3044 0.092942 0.477912 -1.766697
2008-05-06 08:57:57 51°14.452 2°50.865 20.3051 0.092942 0.477928 -1.766697
2008-05-06 08:58:02 51°14.451 2°50.856 20.3054 0.092942 0.477928 -1.766697
2008-05-06 08:58:07 51°14.451 2°50.849 20.3029 0.092942 0.477928 -1.766697
2008-05-06 08:58:12 51°14.451 2°50.841 20.303 0.092942 0.477943 -1.766697
2008-05-06 08:58:17 51°14.45 2°50.833 20.3044 0.092942 0.477943 -1.801521
2008-05-06 08:58:22 51°14.45 2°50.826 20.3086 0.092942 0.477967 -1.801521
2008-05-06 08:58:27 51°14.449 2°50.818 20.3116 0.092942 0.477967 -1.766697
2008-05-06 08:58:32 51°14.449 2°50.811 20.3006 0.092942 0.477974 -1.801521
2008-05-06 08:58:37 51°14.448 2°50.804 20.307 0.092942 0.477974 -1.801521
2008-05-06 08:58:42 51°14.448 2°50.796 20.3055 0.092942 0.477982 -1.766697
2008-05-06 08:58:47 51°14.448 2°50.789 20.3047 0.092942 0.477982 -1.801521
2008-05-06 08:58:52 51°14.447 2°50.782 20.3054 0.092942 0.478005 -1.766697
2008-05-06 08:58:57 51°14.447 2°50.775 20.3074 0.092839 0.477449 -1.766697
2008-05-06 08:59:02 51°14.447 2°50.769 20.3064 0.092839 0.477464 -1.801521
2008-05-06 08:59:07 51°14.446 2°50.762 20.2989 0.092839 0.477464 -1.801521
2008-05-06 08:59:12 51°14.446 2°50.756 20.3058 0.092839 0.477464 -1.801521
2008-05-06 08:59:17 51°14.445 2°50.749 20.304 0.092839 0.477464 -1.801521
2008-05-06 08:59:21 51°14.445 2°50.744 20.3065 0.092839 0.47748 -1.766697
2008-05-06 08:59:27 51°14.445 2°50.736 20.3015 0.092839 0.477472 -1.766697
2008-05-06 08:59:32 51°14.444 2°50.73 20.3015 0.092839 0.47748 -1.766697
2008-05-06 08:59:37 51°14.444 2°50.724 20.3011 0.092839 0.47748 -1.766697
2008-05-06 08:59:42 51°14.443 2°50.718 20.3155 0.092839 0.477495 -1.801521
2008-05-06 08:59:47 51°14.443 2°50.712 20.2962 0.092839 0.477495 -1.766697
2008-05-06 08:59:52 51°14.442 2°50.705 20.3035 0.092839 0.477503 -1.766697
2008-05-06 08:59:57 51°14.442 2°50.699 20.3035 0.092839 0.477511 -1.801521
2008-05-06 09:00:02 51°14.441 2°50.692 20.3148 0.092839 0.477503 -1.766697
2008-05-06 09:00:07 51°14.441 2°50.685 20.3082 0.092839 0.477503 -1.766697
2008-05-06 09:00:12 51°14.44 2°50.679 20.2999 0.092839 0.477519 -1.766697
2008-05-06 09:00:17 51°14.44 2°50.672 20.3081 0.092839 0.477526 -1.766697
2008-05-06 09:00:22 51°14.439 2°50.666 20.2949 0.092839 0.477519 -1.766697
2008-05-06 09:00:27 51°14.438 2°50.659 20.3058 0.092839 0.477534 -1.766697
2008-05-06 09:00:32 51°14.437 2°50.652 20.3029 0.092839 0.477534 -1.801521
2008-05-06 09:00:37 51°14.437 2°50.645 20.3106 0.092839 0.477534 -1.801521
2008-05-06 09:00:42 51°14.436 2°50.638 20.3019 0.092839 0.477542 -1.766697
2008-05-06 09:00:47 51°14.435 2°50.631 20.3059 0.092839 0.477534 -1.801521
2008-05-06 09:00:52 51°14.434 2°50.624 20.3016 0.092839 0.477542 -1.766697
2008-05-06 09:00:57 51°14.433 2°50.618 20.3115 0.092839 0.477557 -1.801521
2008-05-06 09:01:02 51°14.432 2°50.61 20.3079 0.092839 0.477557 -1.801521
2008-05-06 09:01:07 51°14.431 2°50.603 20.309 0.092839 0.477557 -1.801521
2008-05-06 09:01:12 51°14.431 2°50.596 20.305 0.092839 0.477549 -1.766697
2008-05-06 09:01:17 51°14.43 2°50.589 20.3072 0.092839 0.477565 -1.766697
2008-05-06 09:01:22 51°14.429 2°50.582 20.3192 0.092839 0.477573 -1.766697
2008-05-06 09:01:27 51°14.428 2°50.575 20.3121 0.092839 0.477573 -1.801521
2008-05-06 09:01:32 51°14.427 2°50.568 20.3151 0.092839 0.477565 -1.766697
2008-05-06 09:01:37 51°14.426 2°50.561 20.3047 0.092839 0.477565 -1.766697
2008-05-06 09:01:42 51°14.426 2°50.554 20.3039 0.092839 0.47758 -1.766697
2008-05-06 09:01:47 51°14.425 2°50.546 20.3084 0.092839 0.477596 -1.766697
2008-05-06 09:01:52 51°14.424 2°50.539 20.3125 0.092839 0.477596 -1.766697
2008-05-06 09:01:57 51°14.423 2°50.532 20.3109 0.092839 0.477588 -1.766697
2008-05-06 09:02:02 51°14.422 2°50.525 20.3137 0.092839 0.477596 -1.766697
2008-05-06 09:02:07 51°14.422 2°50.518 20.304 0.092839 0.477596 -1.766697
2008-05-06 09:02:12 51°14.421 2°50.51 20.3181 0.092839 0.477604 -1.766697
2008-05-06 09:02:17 51°14.42 2°50.503 20.3157 0.092839 0.477611 -1.766697
2008-05-06 09:02:22 51°14.419 2°50.496 20.3139 0.092839 0.477619 -1.766697
2008-05-06 09:02:27 51°14.419 2°50.489 20.3155 0.092839 0.477627 -1.766697
2008-05-06 09:02:32 51°14.418 2°50.482 20.3106 0.092839 0.477627 -1.766697
2008-05-06 09:02:37 51°14.417 2°50.475 20.3152 0.092839 0.477627 -1.766697
2008-05-06 09:02:42 51°14.416 2°50.467 20.3213 0.092839 0.477627 -1.766697
2008-05-06 09:02:47 51°14.416 2°50.46 20.323 0.092839 0.477635 -1.801521
2008-05-06 09:02:52 51°14.415 2°50.453 20.3131 0.092839 0.47765 -1.801521
2008-05-06 09:02:57 51°14.414 2°50.446 20.3171 0.092839 0.477658 -1.801521
2008-05-06 09:03:02 51°14.413 2°50.439 20.3184 0.092839 0.477666 -1.766697
2008-05-06 09:03:07 51°14.412 2°50.431 20.313 0.092839 0.477666 -1.766697
2008-05-06 09:03:12 51°14.412 2°50.424 20.3144 0.092839 0.477666 -1.766697
2008-05-06 09:03:17 51°14.411 2°50.417 20.321 0.092839 0.477666 -1.766697
2008-05-06 09:03:22 51°14.41 2°50.41 20.312 0.092839 0.477666 -1.766697
2008-05-06 09:03:27 51°14.409 2°50.402 20.3249 0.092839 0.477673 -1.766697
2008-05-06 09:03:32 51°14.408 2°50.395 20.3178 0.092839 0.477673 -1.766697
2008-05-06 09:03:37 51°14.407 2°50.388 20.312 0.092839 0.477673 -1.766697
2008-05-06 09:03:42 51°14.406 2°50.381 20.3216 0.092839 0.477681 -1.766697
2008-05-06 09:03:47 51°14.405 2°50.373 20.3163 0.092839 0.477689 -1.766697
2008-05-06 09:03:52 51°14.404 2°50.366 20.3114 0.092839 0.477697 -1.801521
2008-05-06 09:03:57 51°14.403 2°50.359 20.3119 0.092839 0.477697 -1.766697
2008-05-06 09:04:02 51°14.402 2°50.352 20.3108 0.092839 0.477704 -1.766697
2008-05-06 09:04:07 51°14.4 2°50.345 20.3202 0.092839 0.477704 -1.766697
2008-05-06 09:04:12 51°14.399 2°50.337 20.3231 0.092839 0.477712 -1.766697
2008-05-06 09:04:17 51°14.398 2°50.33 20.3178 0.092839 0.477712 -1.766697
2008-05-06 09:04:22 51°14.397 2°50.323 20.3228 0.092736 0.477171 -1.766697
2008-05-06 09:04:27 51°14.396 2°50.316 20.3178 0.092839 0.477735 -1.801521
2008-05-06 09:04:32 51°14.395 2°50.309 20.3152 0.092839 0.477728 -1.766697
2008-05-06 09:04:37 51°14.394 2°50.302 20.318 0.092839 0.477728 -1.766697
2008-05-06 09:04:42 51°14.393 2°50.295 20.317 0.092736 0.477186 -1.766697
2008-05-06 09:04:47 51°14.391 2°50.288 20.3187 0.092736 0.477194 -1.801521
2008-05-06 09:04:52 51°14.39 2°50.281 20.3174 0.092736 0.477194 -1.766697
2008-05-06 09:04:57 51°14.389 2°50.274 20.3217 0.092736 0.47721 -1.801521
2008-05-06 09:05:02 51°14.388 2°50.267 20.3235 0.092736 0.477202 -1.766697
2008-05-06 09:05:07 51°14.387 2°50.26 20.3145 0.092736 0.477202 -1.766697
2008-05-06 09:05:12 51°14.386 2°50.253 20.3235 0.092736 0.47721 -1.766697
2008-05-06 09:05:17 51°14.384 2°50.246 20.3278 0.092736 0.477217 -1.766697
2008-05-06 09:05:22 51°14.383 2°50.239 20.3172 0.092736 0.477225 -1.766697
2008-05-06 09:05:27 51°14.382 2°50.232 20.3238 0.092736 0.477233 -1.801521
2008-05-06 09:05:32 51°14.381 2°50.225 20.3155 0.092736 0.477241 -1.766697
2008-05-06 09:05:37 51°14.379 2°50.218 20.3232 0.092736 0.477241 -1.766697
2008-05-06 09:05:42 51°14.378 2°50.211 20.3221 0.092736 0.477256 -1.766697
2008-05-06 09:05:47 51°14.377 2°50.204 20.3222 0.092736 0.477264 -1.801521
2008-05-06 09:05:52 51°14.376 2°50.197 20.3239 0.092736 0.477271 -1.766697
2008-05-06 09:05:57 51°14.374 2°50.19 20.3213 0.092736 0.477279 -1.766697
2008-05-06 09:06:02 51°14.373 2°50.183 20.3243 0.092736 0.477287 -1.766697
2008-05-06 09:06:07 51°14.372 2°50.176 20.3253 0.092736 0.477287 -1.766697
2008-05-06 09:06:12 51°14.37 2°50.169 20.3247 0.092736 0.477287 -1.801521
2008-05-06 09:06:17 51°14.369 2°50.162 20.3207 0.092736 0.477295 -1.801521
2008-05-06 09:06:22 51°14.368 2°50.155 20.3099 0.092736 0.477295 -1.801521
2008-05-06 09:06:27 51°14.367 2°50.148 20.3212 0.092736 0.47731 -1.801521
2008-05-06 09:06:32 51°14.365 2°50.142 20.3172 0.092736 0.477318 -1.766697
2008-05-06 09:06:37 51°14.364 2°50.135 20.3214 0.092736 0.477318 -1.766697
2008-05-06 09:06:42 51°14.363 2°50.127 20.3237 0.092736 0.477333 -1.766697
2008-05-06 09:06:47 51°14.361 2°50.121 20.3207 0.092736 0.477341 -1.766697
2008-05-06 09:06:52 51°14.36 2°50.114 20.3196 0.092736 0.477341 -1.766697
2008-05-06 09:06:57 51°14.358 2°50.107 20.3217 0.092736 0.477341 -1.801521
2008-05-06 09:07:02 51°14.357 2°50.1 20.327 0.092736 0.477357 -1.801521
2008-05-06 09:07:07 51°14.356 2°50.093 20.3194 0.092736 0.477357 -1.801521
2008-05-06 09:07:12 51°14.354 2°50.086 20.325 0.092736 0.477372 -1.766697
2008-05-06 09:07:17 51°14.353 2°50.079 20.3293 0.092736 0.47738 -1.766697
2008-05-06 09:07:22 51°14.352 2°50.072 20.3264 0.092736 0.477372 -1.801521
2008-05-06 09:07:27 51°14.35 2°50.065 20.3146 0.092736 0.47738 -1.801521
2008-05-06 09:07:32 51°14.349 2°50.058 20.3202 0.092736 0.477395 -1.801521
2008-05-06 09:07:37 51°14.347 2°50.051 20.3175 0.092736 0.477395 -1.801521
2008-05-06 09:07:42 51°14.346 2°50.044 20.3222 0.092736 0.477403 -1.766697
2008-05-06 09:07:47 51°14.345 2°50.037 20.3267 0.092736 0.477403 -1.801521
2008-05-06 09:07:52 51°14.343 2°50.031 20.3146 0.092736 0.477403 -1.801521
2008-05-06 09:07:57 51°14.342 2°50.024 20.3244 0.092736 0.477426 -1.766697
2008-05-06 09:08:02 51°14.34 2°50.017 20.3216 0.092736 0.477434 -1.801521
2008-05-06 09:08:07 51°14.339 2°50.01 20.32 0.092736 0.477434 -1.801521
2008-05-06 09:08:12 51°14.337 2°50.003 20.3231 0.092736 0.477434 -1.766697
2008-05-06 09:08:17 51°14.336 2°49.996 20.3232 0.092736 0.477442 -1.766697
2008-05-06 09:08:22 51°14.334 2°49.989 20.33 0.092736 0.477457 -1.801521
2008-05-06 09:08:27 51°14.333 2°49.982 20.3239 0.092736 0.477465 -1.766697
2008-05-06 09:08:32 51°14.331 2°49.975 20.324 0.092736 0.477465 -1.766697
2008-05-06 09:08:37 51°14.33 2°49.968 20.3286 0.092736 0.477465 -1.766697
2008-05-06 09:08:42 51°14.328 2°49.962 20.3305 0.092736 0.477481 -1.766697
2008-05-06 09:08:47 51°14.327 2°49.955 20.3265 0.092736 0.477488 -1.766697
2008-05-06 09:08:52 51°14.325 2°49.948 20.3341 0.092736 0.477488 -1.766697
2008-05-06 09:08:57 51°14.323 2°49.941 20.3336 0.092736 0.477504 -1.801521
2008-05-06 09:09:02 51°14.322 2°49.934 20.3253 0.092736 0.477519 -1.766697
2008-05-06 09:09:07 51°14.32 2°49.927 20.329 0.092736 0.477519 -1.766697
2008-05-06 09:09:12 51°14.319 2°49.92 20.3273 0.092736 0.477512 -1.801521
2008-05-06 09:09:17 51°14.317 2°49.913 20.328 0.092736 0.477535 -1.766697
2008-05-06 09:09:22 51°14.316 2°49.907 20.336 0.092736 0.477527 -1.766697
2008-05-06 09:09:27 51°14.314 2°49.9 20.3318 0.092736 0.477535 -1.766697
2008-05-06 09:09:32 51°14.313 2°49.893 20.3267 0.092736 0.477558 -1.801521
2008-05-06 09:09:37 51°14.311 2°49.886 20.3271 0.092736 0.477558 -1.801521
2008-05-06 09:09:42 51°14.31 2°49.879 20.3314 0.092736 0.47755 -1.766697
2008-05-06 09:09:47 51°14.308 2°49.872 20.3367 0.092736 0.477566 -1.801521
2008-05-06 09:09:52 51°14.306 2°49.865 20.3376 0.092736 0.477574 -1.766697
2008-05-06 09:09:57 51°14.305 2°49.859 20.3311 0.092736 0.477574 -1.766697
2008-05-06 09:10:02 51°14.303 2°49.852 20.3331 0.092736 0.477589 -1.801521
2008-05-06 09:10:07 51°14.301 2°49.845 20.3262 0.092736 0.477589 -1.801521
2008-05-06 09:10:12 51°14.3 2°49.838 20.3302 0.092736 0.477589 -1.766697
2008-05-06 09:10:17 51°14.298 2°49.831 20.3347 0.092736 0.477605 -1.766697
2008-05-06 09:10:22 51°14.297 2°49.824 20.329 0.092736 0.477605 -1.766697
2008-05-06 09:10:27 51°14.295 2°49.818 20.3295 0.092736 0.47762 -1.801521
2008-05-06 09:10:32 51°14.293 2°49.811 20.3348 0.092736 0.477628 -1.801521
2008-05-06 09:10:37 51°14.292 2°49.804 20.334 0.092736 0.477628 -1.801521
2008-05-06 09:10:42 51°14.29 2°49.797 20.3382 0.092736 0.477636 -1.766697
2008-05-06 09:10:47 51°14.288 2°49.79 20.3363 0.092736 0.477644 -1.766697
2008-05-06 09:10:52 51°14.286 2°49.784 20.3362 0.092736 0.477651 -1.766697
2008-05-06 09:10:57 51°14.285 2°49.777 20.3309 0.092736 0.477667 -1.801521
2008-05-06 09:11:02 51°14.283 2°49.77 20.3288 0.092736 0.477659 -1.801521
2008-05-06 09:11:07 51°14.281 2°49.763 20.3359 0.092736 0.477659 -1.801521
2008-05-06 09:11:12 51°14.279 2°49.756 20.3301 0.092736 0.477682 -1.801521
2008-05-06 09:11:17 51°14.278 2°49.75 20.334 0.092736 0.477682 -1.801521
2008-05-06 09:11:22 51°14.276 2°49.743 20.3359 0.092736 0.47769 -1.766697
2008-05-06 09:11:27 51°14.274 2°49.736 20.3291 0.092736 0.47769 -1.801521
2008-05-06 09:11:32 51°14.272 2°49.729 20.333 0.092736 0.477706 -1.766697
2008-05-06 09:11:37 51°14.271 2°49.723 20.3297 0.092736 0.477706 -1.766697
2008-05-06 09:11:42 51°14.269 2°49.716 20.3348 0.092736 0.477706 -1.766697
2008-05-06 09:11:47 51°14.267 2°49.709 20.3388 0.092736 0.477721 -1.801521
2008-05-06 09:11:52 51°14.265 2°49.702 20.3367 0.092736 0.477729 -1.766697
2008-05-06 09:11:57 51°14.264 2°49.696 20.3419 0.092633 0.477179 -1.801521
2008-05-06 09:12:02 51°14.262 2°49.689 20.336 0.092633 0.477195 -1.766697
2008-05-06 09:12:07 51°14.26 2°49.682 20.3357 0.092633 0.477195 -1.766697
2008-05-06 09:12:12 51°14.259 2°49.676 20.3362 0.092736 0.477737 -1.766697
2008-05-06 09:12:17 51°14.257 2°49.669 20.3353 0.092633 0.477203 -1.766697
2008-05-06 09:12:22 51°14.255 2°49.662 20.3368 0.092633 0.477203 -1.801521
2008-05-06 09:12:27 51°14.253 2°49.656 20.3422 0.092633 0.47721 -1.801521
2008-05-06 09:12:32 51°14.251 2°49.649 20.3427 0.092633 0.477226 -1.801521
2008-05-06 09:12:37 51°14.25 2°49.642 20.3424 0.092633 0.477226 -1.801521
2008-05-06 09:12:42 51°14.248 2°49.636 20.3369 0.092633 0.477226 -1.766697
2008-05-06 09:12:47 51°14.246 2°49.629 20.3423 0.092633 0.477241 -1.766697
2008-05-06 09:12:52 51°14.244 2°49.622 20.3395 0.092633 0.477241 -1.801521
2008-05-06 09:12:57 51°14.243 2°49.616 20.3409 0.092633 0.477241 -1.766697
2008-05-06 09:13:02 51°14.241 2°49.609 20.3405 0.092633 0.477265 -1.766697
2008-05-06 09:13:07 51°14.239 2°49.602 20.3368 0.092633 0.477265 -1.766697
2008-05-06 09:13:12 51°14.237 2°49.596 20.3356 0.092633 0.477265 -1.766697
2008-05-06 09:13:17 51°14.235 2°49.589 20.3448 0.092633 0.477265 -1.766697
2008-05-06 09:13:22 51°14.234 2°49.583 20.3377 0.092633 0.47728 -1.801521
2008-05-06 09:13:27 51°14.232 2°49.576 20.345 0.092633 0.47728 -1.766697
2008-05-06 09:13:32 51°14.23 2°49.569 20.3453 0.092633 0.477288 -1.766697
2008-05-06 09:13:37 51°14.228 2°49.563 20.3368 0.092633 0.477288 -1.766697
2008-05-06 09:13:42 51°14.226 2°49.556 20.3307 0.092633 0.477296 -1.801521
2008-05-06 09:13:47 51°14.224 2°49.549 20.3339 0.092633 0.477288 -1.766697
2008-05-06 09:13:52 51°14.223 2°49.543 20.3333 0.092633 0.477296 -1.801521
2008-05-06 09:13:57 51°14.221 2°49.536 20.3342 0.092633 0.477311 -1.766697
2008-05-06 09:14:02 51°14.219 2°49.53 20.3402 0.092633 0.477319 -1.766697
2008-05-06 09:14:07 51°14.217 2°49.523 20.337 0.092633 0.477319 -1.766697
2008-05-06 09:14:12 51°14.216 2°49.517 20.3402 0.092633 0.477319 -1.766697
2008-05-06 09:14:17 51°14.214 2°49.51 20.3452 0.092633 0.477319 -1.766697
2008-05-06 09:14:22 51°14.212 2°49.503 20.3362 0.092633 0.477334 -1.766697
2008-05-06 09:14:27 51°14.21 2°49.497 20.3328 0.092633 0.477334 -1.766697
2008-05-06 09:14:32 51°14.208 2°49.49 20.3342 0.092633 0.477334 -1.801521
2008-05-06 09:14:37 51°14.206 2°49.484 20.3397 0.092633 0.477334 -1.801521
2008-05-06 09:14:42 51°14.205 2°49.477 20.3423 0.092633 0.477342 -1.801521
2008-05-06 09:14:47 51°14.203 2°49.47 20.3429 0.092633 0.47735 -1.766697
2008-05-06 09:14:52 51°14.201 2°49.464 20.346 0.092633 0.477358 -1.766697
2008-05-06 09:14:57 51°14.199 2°49.457 20.3404 0.092633 0.477358 -1.766697
2008-05-06 09:15:02 51°14.197 2°49.451 20.3456 0.092633 0.477358 -1.766697
2008-05-06 09:15:07 51°14.195 2°49.444 20.3467 0.092633 0.477358 -1.766697
2008-05-06 09:15:12 51°14.194 2°49.438 20.3464 0.092633 0.477373 -1.766697
2008-05-06 09:15:17 51°14.192 2°49.431 20.348 0.092633 0.477381 -1.801521
2008-05-06 09:15:21 51°14.19 2°49.426 20.3469 0.092633 0.477381 -1.766697
2008-05-06 09:15:27 51°14.188 2°49.418 20.3376 0.092633 0.477373 -1.801521
2008-05-06 09:15:32 51°14.186 2°49.411 20.3437 0.092633 0.477381 -1.766697
2008-05-06 09:15:37 51°14.185 2°49.405 20.3433 0.092633 0.477381 -1.766697
2008-05-06 09:15:42 51°14.183 2°49.398 20.3446 0.092633 0.477389 -1.766697
2008-05-06 09:15:47 51°14.181 2°49.392 20.3416 0.092633 0.477404 -1.801521
2008-05-06 09:15:52 51°14.179 2°49.385 20.3438 0.092633 0.477404 -1.801521
2008-05-06 09:15:57 51°14.177 2°49.378 20.3452 0.092633 0.477404 -1.766697
2008-05-06 09:16:02 51°14.176 2°49.372 20.3417 0.092633 0.477412 -1.766697
2008-05-06 09:16:07 51°14.174 2°49.365 20.3471 0.092633 0.477412 -1.766697
2008-05-06 09:16:12 51°14.172 2°49.359 20.3462 0.092633 0.477412 -1.801521
2008-05-06 09:16:17 51°14.17 2°49.352 20.3444 0.092633 0.477428 -1.766697
2008-05-06 09:16:22 51°14.168 2°49.345 20.3495 0.092633 0.477428 -1.766697
2008-05-06 09:16:27 51°14.167 2°49.338 20.3503 0.092633 0.477435 -1.766697
2008-05-06 09:16:32 51°14.165 2°49.332 20.3416 0.092633 0.477443 -1.801521
2008-05-06 09:16:37 51°14.163 2°49.325 20.3443 0.092633 0.477443 -1.801521
2008-05-06 09:16:42 51°14.161 2°49.319 20.3459 0.092633 0.477451 -1.801521
2008-05-06 09:16:47 51°14.16 2°49.312 20.3472 0.092633 0.477459 -1.801521
2008-05-06 09:16:52 51°14.158 2°49.305 20.3418 0.092633 0.477459 -1.766697
2008-05-06 09:16:57 51°14.156 2°49.299 20.3409 0.092633 0.477466 -1.801521
2008-05-06 09:17:02 51°14.154 2°49.292 20.348 0.092633 0.477466 -1.766697
2008-05-06 09:17:07 51°14.153 2°49.286 20.348 0.092633 0.477466 -1.766697
2008-05-06 09:17:12 51°14.151 2°49.279 20.3512 0.092633 0.477474 -1.766697
2008-05-06 09:17:17 51°14.149 2°49.272 20.3487 0.092633 0.477474 -1.801521
2008-05-06 09:17:22 51°14.147 2°49.266 20.3497 0.092633 0.47749 -1.766697
2008-05-06 09:17:27 51°14.145 2°49.259 20.3524 0.092633 0.477497 -1.801521
2008-05-06 09:17:32 51°14.144 2°49.253 20.3491 0.092633 0.477497 -1.766697
2008-05-06 09:17:37 51°14.142 2°49.246 20.352 0.092633 0.477497 -1.766697
2008-05-06 09:17:42 51°14.14 2°49.239 20.3456 0.092633 0.477505 -1.766697
2008-05-06 09:17:47 51°14.139 2°49.233 20.3496 0.092633 0.477521 -1.801521
2008-05-06 09:17:52 51°14.137 2°49.226 20.3517 0.092633 0.477528 -1.801521
2008-05-06 09:17:57 51°14.135 2°49.22 20.3553 0.092633 0.477536 -1.801521
2008-05-06 09:18:02 51°14.133 2°49.213 20.3506 0.092633 0.477536 -1.801521
2008-05-06 09:18:07 51°14.132 2°49.206 20.3428 0.092633 0.477536 -1.801521
2008-05-06 09:18:12 51°14.13 2°49.2 20.3575 0.092633 0.477544 -1.801521
2008-05-06 09:18:17 51°14.128 2°49.193 20.3571 0.092633 0.477552 -1.766697
2008-05-06 09:18:22 51°14.127 2°49.187 20.3529 0.092633 0.477552 -1.766697
2008-05-06 09:18:27 51°14.125 2°49.18 20.3488 0.092633 0.47756 -1.801521
2008-05-06 09:18:32 51°14.123 2°49.173 20.3526 0.092633 0.47756 -1.766697
2008-05-06 09:18:37 51°14.121 2°49.167 20.3493 0.092633 0.47756 -1.766697
2008-05-06 09:18:42 51°14.12 2°49.16 20.3469 0.092633 0.477567 -1.801521
2008-05-06 09:18:47 51°14.118 2°49.153 20.3524 0.092633 0.477575 -1.766697
2008-05-06 09:18:52 51°14.116 2°49.147 20.3511 0.092633 0.477575 -1.801521
2008-05-06 09:18:57 51°14.114 2°49.14 20.3548 0.092633 0.477583 -1.801521
2008-05-06 09:19:02 51°14.113 2°49.134 20.3491 0.092633 0.477591 -1.766697
2008-05-06 09:19:07 51°14.111 2°49.127 20.3565 0.092633 0.477591 -1.766697
2008-05-06 09:19:12 51°14.109 2°49.12 20.3524 0.092633 0.477598 -1.766697
2008-05-06 09:19:17 51°14.108 2°49.114 20.3541 0.092633 0.477606 -1.766697
2008-05-06 09:19:22 51°14.106 2°49.107 20.3561 0.092633 0.477614 -1.766697
2008-05-06 09:19:27 51°14.104 2°49.101 20.3515 0.092633 0.477622 -1.766697
2008-05-06 09:19:32 51°14.103 2°49.094 20.3492 0.092633 0.477629 -1.766697
2008-05-06 09:19:37 51°14.101 2°49.088 20.3536 0.092633 0.477629 -1.766697
2008-05-06 09:19:42 51°14.099 2°49.081 20.3489 0.092633 0.477637 -1.801521
2008-05-06 09:19:47 51°14.097 2°49.074 20.3586 0.092633 0.477637 -1.766697
2008-05-06 09:19:52 51°14.095 2°49.068 20.3505 0.092633 0.477645 -1.766697
2008-05-06 09:19:57 51°14.094 2°49.061 20.3548 0.092633 0.477645 -1.801521
2008-05-06 09:20:02 51°14.092 2°49.055 20.3563 0.092633 0.477653 -1.766697
2008-05-06 09:20:07 51°14.09 2°49.048 20.3566 0.092633 0.477653 -1.766697
2008-05-06 09:20:12 51°14.089 2°49.041 20.354 0.092633 0.477653 -1.766697
2008-05-06 09:20:17 51°14.087 2°49.035 20.3543 0.092633 0.477668 -1.766697
2008-05-06 09:20:22 51°14.085 2°49.028 20.3433 0.092633 0.477676 -1.801521
2008-05-06 09:20:27 51°14.084 2°49.022 20.3564 0.092633 0.477676 -1.766697
2008-05-06 09:20:32 51°14.082 2°49.015 20.355 0.092633 0.477684 -1.766697
2008-05-06 09:20:37 51°14.08 2°49.008 20.3492 0.092633 0.477684 -1.766697
2008-05-06 09:20:42 51°14.079 2°49.002 20.3557 0.092633 0.477684 -1.801521
2008-05-06 09:20:47 51°14.077 2°48.995 20.3511 0.092633 0.477692 -1.766697
2008-05-06 09:20:52 51°14.076 2°48.988 20.3492 0.09253 0.477157 -1.766697
2008-05-06 09:20:57 51°14.074 2°48.982 20.3615 0.09253 0.477165 -1.766697
2008-05-06 09:21:02 51°14.072 2°48.975 20.3641 0.09253 0.477172 -1.766697
2008-05-06 09:21:07 51°14.071 2°48.969 20.3575 0.09253 0.477172 -1.766697
2008-05-06 09:21:12 51°14.069 2°48.962 20.3594 0.09253 0.477172 -1.766697
2008-05-06 09:21:17 51°14.068 2°48.955 20.3542 0.09253 0.477188 -1.801521
2008-05-06 09:21:22 51°14.066 2°48.949 20.3502 0.09253 0.477196 -1.801521
2008-05-06 09:21:27 51°14.064 2°48.942 20.3579 0.09253 0.477196 -1.766697
2008-05-06 09:21:32 51°14.063 2°48.935 20.3613 0.09253 0.477203 -1.766697
2008-05-06 09:21:37 51°14.061 2°48.929 20.3605 0.09253 0.477203 -1.766697
2008-05-06 09:21:42 51°14.06 2°48.922 20.3454 0.09253 0.477211 -1.766697
2008-05-06 09:21:47 51°14.058 2°48.916 20.3464 0.09253 0.477219 -1.801521
2008-05-06 09:21:52 51°14.056 2°48.909 20.3562 0.09253 0.477227 -1.766697
2008-05-06 09:21:57 51°14.055 2°48.903 20.361 0.09253 0.477235 -1.801521
2008-05-06 09:22:02 51°14.053 2°48.896 20.3607 0.09253 0.477242 -1.766697
2008-05-06 09:22:07 51°14.052 2°48.889 20.3495 0.09253 0.477242 -1.766697
2008-05-06 09:22:12 51°14.05 2°48.883 20.3527 0.09253 0.477258 -1.766697
2008-05-06 09:22:17 51°14.049 2°48.876 20.3517 0.09253 0.477258 -1.766697
2008-05-06 09:22:22 51°14.047 2°48.87 20.3522 0.09253 0.477258 -1.801521
2008-05-06 09:22:27 51°14.046 2°48.863 20.3531 0.09253 0.477273 -1.801521
2008-05-06 09:22:32 51°14.044 2°48.856 20.3595 0.09253 0.477281 -1.801521
2008-05-06 09:22:37 51°14.043 2°48.85 20.3555 0.09253 0.477281 -1.801521
2008-05-06 09:22:42 51°14.042 2°48.843 20.3579 0.09253 0.477289 -1.766697
2008-05-06 09:22:47 51°14.04 2°48.837 20.3503 0.09253 0.477297 -1.766697
2008-05-06 09:22:52 51°14.039 2°48.83 20.3605 0.09253 0.477304 -1.766697
2008-05-06 09:22:57 51°14.037 2°48.824 20.3558 0.09253 0.477312 -1.766697
2008-05-06 09:23:02 51°14.036 2°48.817 20.357 0.09253 0.477312 -1.801521
2008-05-06 09:23:07 51°14.034 2°48.81 20.3545 0.09253 0.477312 -1.801521
2008-05-06 09:23:12 51°14.033 2°48.804 20.3574 0.09253 0.477328 -1.766697
2008-05-06 09:23:17 51°14.031 2°48.797 20.359 0.09253 0.477328 -1.801521
2008-05-06 09:23:22 51°14.03 2°48.791 20.3506 0.09253 0.477336 -1.801521
2008-05-06 09:23:27 51°14.029 2°48.784 20.3531 0.09253 0.477343 -1.766697
2008-05-06 09:23:32 51°14.027 2°48.778 20.3603 0.09253 0.477351 -1.766697
2008-05-06 09:23:37 51°14.026 2°48.771 20.3574 0.09253 0.477351 -1.766697
2008-05-06 09:23:42 51°14.024 2°48.765 20.3586 0.09253 0.477359 -1.766697
2008-05-06 09:23:47 51°14.023 2°48.758 20.3485 0.09253 0.477359 -1.801521
2008-05-06 09:23:52 51°14.022 2°48.752 20.3454 0.09253 0.477367 -1.801521
2008-05-06 09:23:57 51°14.02 2°48.745 20.3516 0.09253 0.477382 -1.801521
2008-05-06 09:24:02 51°14.019 2°48.739 20.3563 0.09253 0.477382 -1.766697
2008-05-06 09:24:07 51°14.017 2°48.732 20.3595 0.09253 0.477382 -1.766697
2008-05-06 09:24:12 51°14.016 2°48.726 20.3576 0.09253 0.47739 -1.801521
2008-05-06 09:24:17 51°14.015 2°48.719 20.3555 0.09253 0.477398 -1.801521
2008-05-06 09:24:22 51°14.013 2°48.713 20.3561 0.09253 0.477405 -1.766697
2008-05-06 09:24:27 51°14.012 2°48.706 20.3597 0.09253 0.477421 -1.801521
2008-05-06 09:24:32 51°14.011 2°48.699 20.3575 0.09253 0.477421 -1.766697
2008-05-06 09:24:37 51°14.009 2°48.693 20.3574 0.09253 0.477421 -1.766697
2008-05-06 09:24:42 51°14.008 2°48.686 20.3564 0.09253 0.477429 -1.766697
2008-05-06 09:24:47 51°14.007 2°48.68 20.3533 0.09253 0.477437 -1.801521
2008-05-06 09:24:52 51°14.006 2°48.673 20.3601 0.09253 0.477444 -1.801521
2008-05-06 09:24:57 51°14.004 2°48.667 20.3587 0.09253 0.477452 -1.801521
2008-05-06 09:25:02 51°14.003 2°48.66 20.3571 0.09253 0.47746 -1.766697
2008-05-06 09:25:07 51°14.002 2°48.654 20.356 0.09253 0.47746 -1.766697
2008-05-06 09:25:12 51°14.001 2°48.647 20.3529 0.09253 0.47746 -1.766697
2008-05-06 09:25:17 51°13.999 2°48.641 20.3557 0.09253 0.477468 -1.801521
2008-05-06 09:25:22 51°13.998 2°48.634 20.3611 0.09253 0.477475 -1.801521
2008-05-06 09:25:27 51°13.997 2°48.628 20.3609 0.09253 0.477491 -1.801521
2008-05-06 09:25:32 51°13.995 2°48.621 20.3584 0.09253 0.477491 -1.801521
2008-05-06 09:25:37 51°13.994 2°48.615 20.3581 0.09253 0.477491 -1.801521
2008-05-06 09:25:42 51°13.993 2°48.608 20.3602 0.09253 0.477499 -1.766697
2008-05-06 09:25:47 51°13.992 2°48.601 20.3633 0.09253 0.477507 -1.766697
2008-05-06 09:25:52 51°13.99 2°48.595 20.358 0.09253 0.477514 -1.801521
2008-05-06 09:25:57 51°13.989 2°48.588 20.3614 0.09253 0.477522 -1.766697
2008-05-06 09:26:02 51°13.988 2°48.582 20.36 0.09253 0.47753 -1.801521
2008-05-06 09:26:07 51°13.986 2°48.575 20.365 0.09253 0.47753 -1.801521
2008-05-06 09:26:12 51°13.985 2°48.569 20.3581 0.09253 0.47753 -1.766697
2008-05-06 09:26:17 51°13.984 2°48.562 20.3565 0.09253 0.477538 -1.766697
2008-05-06 09:26:22 51°13.983 2°48.555 20.3635 0.09253 0.477545 -1.801521
2008-05-06 09:26:27 51°13.982 2°48.549 20.3576 0.09253 0.477553 -1.801521
2008-05-06 09:26:32 51°13.98 2°48.542 20.3575 0.09253 0.477561 -1.801521
2008-05-06 09:26:37 51°13.979 2°48.536 20.3587 0.09253 0.477561 -1.801521
2008-05-06 09:26:42 51°13.978 2°48.529 20.3636 0.09253 0.477561 -1.766697
2008-05-06 09:26:47 51°13.977 2°48.523 20.3698 0.09253 0.477569 -1.766697
2008-05-06 09:26:52 51°13.976 2°48.516 20.3665 0.09253 0.477569 -1.766697
2008-05-06 09:26:57 51°13.974 2°48.51 20.3573 0.09253 0.477584 -1.801521
2008-05-06 09:27:02 51°13.973 2°48.504 20.3601 0.09253 0.477584 -1.766697
2008-05-06 09:27:07 51°13.972 2°48.497 20.3673 0.09253 0.477584 -1.766697
2008-05-06 09:27:12 51°13.971 2°48.491 20.365 0.09253 0.477592 -1.766697
2008-05-06 09:27:17 51°13.969 2°48.485 20.3647 0.09253 0.4776 -1.766697
2008-05-06 09:27:22 51°13.968 2°48.478 20.3627 0.09253 0.477608 -1.801521
2008-05-06 09:27:27 51°13.967 2°48.472 20.3609 0.09253 0.477615 -1.766697
2008-05-06 09:27:32 51°13.966 2°48.466 20.3555 0.09253 0.477615 -1.801521
2008-05-06 09:27:37 51°13.964 2°48.459 20.3573 0.09253 0.477615 -1.801521
2008-05-06 09:27:42 51°13.963 2°48.453 20.363 0.09253 0.477623 -1.801521
2008-05-06 09:27:47 51°13.962 2°48.447 20.3508 0.09253 0.477623 -1.801521
2008-05-06 09:27:52 51°13.961 2°48.441 20.3514 0.09253 0.477639 -1.766697
2008-05-06 09:27:57 51°13.96 2°48.434 20.357 0.09253 0.477639 -1.801521
2008-05-06 09:28:02 51°13.959 2°48.428 20.3624 0.09253 0.477647 -1.766697
2008-05-06 09:28:07 51°13.958 2°48.422 20.3618 0.09253 0.477647 -1.766697
2008-05-06 09:28:12 51°13.957 2°48.415 20.3618 0.09253 0.477647 -1.801521
2008-05-06 09:28:17 51°13.956 2°48.409 20.3587 0.09253 0.477662 -1.766697
2008-05-06 09:28:22 51°13.955 2°48.403 20.3573 0.09253 0.477662 -1.766697
2008-05-06 09:28:27 51°13.954 2°48.397 20.3529 0.09253 0.47767 -1.801521
2008-05-06 09:28:32 51°13.954 2°48.391 20.3528 0.09253 0.477678 -1.766697
2008-05-06 09:28:37 51°13.953 2°48.385 20.3587 0.09253 0.477686 -1.801521
2008-05-06 09:28:42 51°13.953 2°48.379 20.3559 0.09253 0.477686 -1.801521
2008-05-06 09:28:47 51°13.952 2°48.373 20.3586 0.09253 0.477686 -1.801521
2008-05-06 09:28:52 51°13.952 2°48.367 20.3555 0.09253 0.477693 -1.801521
2008-05-06 09:28:57 51°13.952 2°48.361 20.3585 0.09253 0.477701 -1.801521
2008-05-06 09:29:02 51°13.951 2°48.356 20.3654 0.09253 0.477709 -1.801521
2008-05-06 09:29:07 51°13.951 2°48.35 20.364 0.09253 0.477709 -1.801521
2008-05-06 09:29:12 51°13.95 2°48.345 20.3652 0.09253 0.477717 -1.801521
2008-05-06 09:29:17 51°13.95 2°48.34 20.3664 0.09253 0.477717 -1.766697
2008-05-06 09:29:22 51°13.95 2°48.335 20.3688 0.09253 0.477724 -1.766697
2008-05-06 09:29:27 51°13.949 2°48.33 20.3618 0.09253 0.47774 -1.766697
2008-05-06 09:29:32 51°13.949 2°48.325 20.3631 0.09253 0.47774 -1.766697
2008-05-06 09:29:37 51°13.948 2°48.32 20.3721 0.09253 0.47774 -1.766697
2008-05-06 09:29:42 51°13.948 2°48.315 20.3704 0.09253 0.477748 -1.766697
2008-05-06 09:29:47 51°13.947 2°48.311 20.3648 0.09253 0.477756 -1.801521
2008-05-06 09:29:52 51°13.947 2°48.306 20.3712 0.09253 0.477763 -1.766697
2008-05-06 09:29:57 51°13.946 2°48.301 20.3642 0.09253 0.477771 -1.766697
2008-05-06 09:30:02 51°13.946 2°48.297 20.3621 0.09253 0.477787 -1.766697
2008-05-06 09:30:07 51°13.945 2°48.292 20.3629 0.09253 0.477787 -1.766697
2008-05-06 09:30:12 51°13.944 2°48.288 20.3636 0.09253 0.477787 -1.801521
2008-05-06 09:30:17 51°13.944 2°48.284 20.3717 0.09253 0.477795 -1.766697
2008-05-06 09:30:22 51°13.943 2°48.279 20.3677 0.09253 0.477802 -1.801521
2008-05-06 09:30:27 51°13.942 2°48.275 20.3678 0.09253 0.47781 -1.801521
2008-05-06 09:30:32 51°13.942 2°48.27 20.3621 0.09253 0.47781 -1.766697
2008-05-06 09:30:37 51°13.941 2°48.266 20.3663 0.09253 0.47781 -1.766697
2008-05-06 09:30:42 51°13.94 2°48.262 20.3628 0.09253 0.477818 -1.766697
2008-05-06 09:30:47 51°13.94 2°48.258 20.3675 0.092427 0.477275 -1.766697
2008-05-06 09:30:52 51°13.939 2°48.254 20.3609 0.09253 0.477833 -1.801521
2008-05-06 09:30:57 51°13.938 2°48.249 20.3599 0.092427 0.47729 -1.801521
2008-05-06 09:31:02 51°13.938 2°48.245 20.368 0.09253 0.477841 -1.801521
2008-05-06 09:31:07 51°13.937 2°48.241 20.3643 0.09253 0.477841 -1.801521
2008-05-06 09:31:12 51°13.936 2°48.237 20.3636 0.092427 0.477298 -1.801521
2008-05-06 09:31:17 51°13.935 2°48.233 20.3648 0.092427 0.477306 -1.801521
2008-05-06 09:31:22 51°13.934 2°48.229 20.3647 0.092427 0.477314 -1.801521
2008-05-06 09:31:27 51°13.933 2°48.225 20.3667 0.092427 0.477321 -1.801521
2008-05-06 09:31:32 51°13.933 2°48.221 20.364 0.092427 0.477321 -1.801521
2008-05-06 09:31:37 51°13.932 2°48.217 20.3627 0.092427 0.477321 -1.801521
2008-05-06 09:31:42 51°13.931 2°48.213 20.3668 0.092427 0.477329 -1.801521
2008-05-06 09:31:47 51°13.93 2°48.209 20.368 0.092427 0.477337 -1.766697
2008-05-06 09:31:52 51°13.929 2°48.206 20.367 0.092427 0.477345 -1.801521
2008-05-06 09:31:57 51°13.928 2°48.202 20.3719 0.092427 0.477345 -1.766697
2008-05-06 09:32:02 51°13.927 2°48.198 20.3686 0.092427 0.477345 -1.766697
2008-05-06 09:32:07 51°13.926 2°48.194 20.3712 0.092427 0.477345 -1.766697
2008-05-06 09:32:12 51°13.926 2°48.191 20.3687 0.092427 0.477352 -1.766697
2008-05-06 09:32:17 51°13.925 2°48.187 20.3684 0.092427 0.47736 -1.766697
2008-05-06 09:32:22 51°13.924 2°48.183 20.3705 0.092427 0.47736 -1.766697
2008-05-06 09:32:27 51°13.923 2°48.18 20.3696 0.092427 0.477368 -1.801521
2008-05-06 09:32:32 51°13.922 2°48.176 20.3655 0.092427 0.477368 -1.801521
2008-05-06 09:32:37 51°13.921 2°48.172 20.3647 0.092427 0.477368 -1.801521
2008-05-06 09:32:42 51°13.92 2°48.168 20.3637 0.092427 0.477376 -1.801521
2008-05-06 09:32:47 51°13.92 2°48.164 20.3663 0.092427 0.477384 -1.801521
2008-05-06 09:32:52 51°13.919 2°48.16 20.3673 0.092427 0.477391 -1.766697
2008-05-06 09:32:57 51°13.918 2°48.156 20.3698 0.092427 0.477391 -1.766697
2008-05-06 09:33:02 51°13.918 2°48.152 20.3663 0.092427 0.477407 -1.766697
2008-05-06 09:33:07 51°13.918 2°48.147 20.3534 0.092427 0.477407 -1.766697
2008-05-06 09:33:12 51°13.919 2°48.142 20.3521 0.092427 0.477407 -1.801521
2008-05-06 09:33:17 51°13.92 2°48.137 20.3498 0.092427 0.477415 -1.801521
2008-05-06 09:33:22 51°13.921 2°48.132 20.3431 0.092427 0.47743 -1.801521
2008-05-06 09:33:27 51°13.923 2°48.127 20.3547 0.092427 0.47743 -1.801521
2008-05-06 09:33:32 51°13.924 2°48.123 20.35 0.092427 0.477438 -1.766697
2008-05-06 09:33:37 51°13.926 2°48.119 20.3481 0.092427 0.477438 -1.766697
2008-05-06 09:33:42 51°13.929 2°48.116 20.3506 0.092427 0.477446 -1.801521
2008-05-06 09:33:47 51°13.932 2°48.113 20.3585 0.092427 0.477454 -1.766697
2008-05-06 09:33:52 51°13.934 2°48.111 20.3564 0.092427 0.477469 -1.766697
2008-05-06 09:33:57 51°13.937 2°48.11 20.3564 0.092427 0.477469 -1.766697
2008-05-06 09:34:02 51°13.94 2°48.109 20.3601 0.092427 0.477477 -1.801521
2008-05-06 09:34:07 51°13.943 2°48.108 20.3659 0.092427 0.477477 -1.801521
2008-05-06 09:34:12 51°13.945 2°48.109 20.3665 0.092427 0.477485 -1.766697
2008-05-06 09:34:17 51°13.948 2°48.11 20.3699 0.092427 0.477493 -1.801521
2008-05-06 09:34:22 51°13.95 2°48.112 20.3645 0.092427 0.4775 -1.801521
2008-05-06 09:34:27 51°13.952 2°48.114 20.3654 0.092427 0.477508 -1.801521
2008-05-06 09:34:32 51°13.954 2°48.117 20.3704 0.092427 0.477516 -1.766697
2008-05-06 09:34:37 51°13.955 2°48.121 20.3707 0.092427 0.477516 -1.766697
2008-05-06 09:34:42 51°13.956 2°48.124 20.3574 0.092427 0.477532 -1.801521
2008-05-06 09:34:47 51°13.957 2°48.129 20.3672 0.092427 0.477532 -1.766697
2008-05-06 09:34:52 51°13.957 2°48.133 20.3826 0.092427 0.477547 -1.801521
2008-05-06 09:34:57 51°13.957 2°48.138 20.381 0.092427 0.477547 -1.766697
2008-05-06 09:35:02 51°13.957 2°48.144 20.3813 0.092427 0.477563 -1.766697
2008-05-06 09:35:07 51°13.956 2°48.149 20.3802 0.092427 0.477563 -1.766697
2008-05-06 09:35:12 51°13.956 2°48.155 20.3763 0.092427 0.477571 -1.766697
2008-05-06 09:35:17 51°13.956 2°48.161 20.383 0.092427 0.477563 -1.801521
2008-05-06 09:35:22 51°13.956 2°48.167 20.3799 0.092427 0.477571 -1.766697
2008-05-06 09:35:27 51°13.956 2°48.174 20.382 0.092427 0.477578 -1.801521
2008-05-06 09:35:32 51°13.956 2°48.18 20.3825 0.092427 0.477578 -1.766697
2008-05-06 09:35:37 51°13.956 2°48.187 20.383 0.092427 0.477578 -1.766697
2008-05-06 09:35:42 51°13.957 2°48.194 20.384 0.092427 0.477586 -1.801521
2008-05-06 09:35:47 51°13.957 2°48.201 20.3787 0.092427 0.477602 -1.801521
2008-05-06 09:35:52 51°13.958 2°48.208 20.375 0.092427 0.477609 -1.766697
2008-05-06 09:35:57 51°13.959 2°48.215 20.3742 0.092427 0.477633 -1.801521
2008-05-06 09:36:02 51°13.96 2°48.222 20.3807 0.092427 0.477648 -1.801521
2008-05-06 09:36:07 51°13.961 2°48.229 20.38 0.092427 0.477648 -1.801521
2008-05-06 09:36:12 51°13.962 2°48.236 20.3766 0.092427 0.477664 -1.766697
2008-05-06 09:36:17 51°13.964 2°48.243 20.382 0.092427 0.47768 -1.766697
2008-05-06 09:36:22 51°13.965 2°48.25 20.3758 0.092427 0.477687 -1.801521
2008-05-06 09:36:26 51°13.966 2°48.256 20.3794 0.092427 0.477687 -1.766697
2008-05-06 09:36:32 51°13.968 2°48.265 20.3792 0.092427 0.477695 -1.766697
2008-05-06 09:36:37 51°13.97 2°48.272 20.3767 0.092427 0.477695 -1.766697
2008-05-06 09:36:41 51°13.971 2°48.278 20.3734 0.092427 0.477703 -1.766697
2008-05-06 09:36:47 51°13.973 2°48.287 20.38 0.092427 0.477703 -1.801521
2008-05-06 09:36:52 51°13.975 2°48.294 20.3731 0.092427 0.477711 -1.766697
2008-05-06 09:36:57 51°13.976 2°48.302 20.379 0.092427 0.477719 -1.766697
2008-05-06 09:37:01 51°13.978 2°48.309 20.3804 0.092427 0.477719 -1.801521
2008-05-06 09:37:07 51°13.98 2°48.319 20.3825 0.092427 0.477719 -1.801521
2008-05-06 09:37:12 51°13.981 2°48.327 20.3766 0.092427 0.477734 -1.766697
2008-05-06 09:37:17 51°13.983 2°48.336 20.3795 0.092427 0.477742 -1.766697
2008-05-06 09:37:21 51°13.985 2°48.343 20.3818 0.092427 0.477742 -1.766697
2008-05-06 09:37:27 51°13.986 2°48.354 20.3801 0.092427 0.47775 -1.766697
2008-05-06 09:37:32 51°13.988 2°48.363 20.3829 0.092427 0.477758 -1.766697
2008-05-06 09:37:36 51°13.989 2°48.371 20.3855 0.092427 0.477758 -1.766697
2008-05-06 09:37:42 51°13.992 2°48.382 20.3842 0.092427 0.477773 -1.801521
2008-05-06 09:37:47 51°13.993 2°48.391 20.3823 0.092427 0.477773 -1.801521
2008-05-06 09:37:52 51°13.995 2°48.401 20.3849 0.092427 0.477781 -1.766697
2008-05-06 09:37:56 51°13.997 2°48.408 20.3846 0.092427 0.477789 -1.801521
2008-05-06 09:38:01 51°13.998 2°48.418 20.3778 0.092427 0.477797 -1.766697
2008-05-06 09:38:07 51°14.001 2°48.429 20.3825 0.092427 0.477797 -1.766697
2008-05-06 09:38:12 51°14.002 2°48.439 20.3807 0.092427 0.477812 -1.801521
2008-05-06 09:38:16 51°14.004 2°48.447 20.3803 0.092427 0.477812 -1.801521
2008-05-06 09:38:21 51°14.006 2°48.457 20.3811 0.092427 0.477828 -1.801521
2008-05-06 09:38:27 51°14.008 2°48.468 20.3797 0.092427 0.477836 -1.766697
2008-05-06 09:38:32 51°14.01 2°48.478 20.3827 0.092427 0.477843 -1.801521
2008-05-06 09:38:37 51°14.011 2°48.488 20.3806 0.092427 0.477843 -1.801521
2008-05-06 09:38:41 51°14.013 2°48.496 20.3772 0.092427 0.477851 -1.766697
2008-05-06 09:38:47 51°14.015 2°48.508 20.3856 0.092427 0.477859 -1.766697
2008-05-06 09:38:52 51°14.017 2°48.518 20.386 0.092427 0.477867 -1.766697
2008-05-06 09:38:57 51°14.019 2°48.528 20.3875 0.092427 0.477867 -1.801521
2008-05-06 09:39:01 51°14.02 2°48.535 20.3833 0.092427 0.477875 -1.801521
2008-05-06 09:39:07 51°14.022 2°48.547 20.3844 0.092427 0.477875 -1.801521
2008-05-06 09:39:12 51°14.024 2°48.557 20.3837 0.092427 0.477882 -1.766697
2008-05-06 09:39:17 51°14.026 2°48.567 20.3861 0.092427 0.47789 -1.766697
2008-05-06 09:39:21 51°14.027 2°48.576 20.3912 0.092427 0.477898 -1.766697
2008-05-06 09:39:27 51°14.029 2°48.588 20.3895 0.092427 0.477906 -1.766697
2008-05-06 09:39:32 51°14.031 2°48.6 20.3911 0.092427 0.477914 -1.766697
2008-05-06 09:39:37 51°14.033 2°48.611 20.3896 0.092427 0.477914 -1.766697
2008-05-06 09:39:42 51°14.035 2°48.623 20.3891 0.092427 0.477921 -1.766697
2008-05-06 09:39:47 51°14.037 2°48.635 20.3872 0.092427 0.477929 -1.801521
2008-05-06 09:39:52 51°14.04 2°48.648 20.3887 0.092427 0.477945 -1.801521
2008-05-06 09:39:56 51°14.041 2°48.658 20.3863 0.092427 0.477937 -1.766697
2008-05-06 09:40:02 51°14.044 2°48.673 20.3855 0.092325 0.477401 -1.766697
2008-05-06 09:40:07 51°14.046 2°48.686 20.3873 0.092325 0.477401 -1.766697
2008-05-06 09:40:12 51°14.048 2°48.699 20.3866 0.092325 0.477409 -1.766697
2008-05-06 09:40:16 51°14.05 2°48.71 20.3917 0.092325 0.477416 -1.801521
2008-05-06 09:40:22 51°14.053 2°48.726 20.3838 0.092325 0.477424 -1.766697
2008-05-06 09:40:27 51°14.056 2°48.739 20.3853 0.092325 0.477424 -1.766697
2008-05-06 09:40:32 51°14.058 2°48.753 20.3899 0.092325 0.477432 -1.766697
2008-05-06 09:40:36 51°14.06 2°48.764 20.3854 0.092325 0.477432 -1.766697
2008-05-06 09:40:41 51°14.062 2°48.777 20.3902 0.092325 0.47744 -1.766697
2008-05-06 09:40:47 51°14.065 2°48.794 20.3888 0.092325 0.477448 -1.801521
2008-05-06 09:40:52 51°14.068 2°48.808 20.392 0.092325 0.477448 -1.801521
2008-05-06 09:40:57 51°14.071 2°48.822 20.3914 0.092325 0.477455 -1.766697
2008-05-06 09:41:01 51°14.073 2°48.834 20.3856 0.092325 0.477455 -1.766697
2008-05-06 09:41:07 51°14.076 2°48.851 20.3914 0.092325 0.477455 -1.766697
2008-05-06 09:41:12 51°14.079 2°48.866 20.3919 0.092325 0.477463 -1.801521
2008-05-06 09:41:16 51°14.081 2°48.878 20.3877 0.092325 0.477463 -1.766697
2008-05-06 09:41:21 51°14.083 2°48.893 20.3961 0.092325 0.477471 -1.801521
2008-05-06 09:41:27 51°14.087 2°48.911 20.3916 0.092325 0.477471 -1.766697
2008-05-06 09:41:32 51°14.09 2°48.926 20.387 0.092325 0.477479 -1.766697
2008-05-06 09:41:37 51°14.092 2°48.942 20.3894 0.092325 0.477479 -1.766697
2008-05-06 09:41:41 51°14.095 2°48.954 20.3937 0.092325 0.477487 -1.766697
2008-05-06 09:41:47 51°14.098 2°48.972 20.3927 0.092325 0.477494 -1.766697
2008-05-06 09:41:52 51°14.101 2°48.988 20.3872 0.092325 0.477502 -1.766697
2008-05-06 09:41:57 51°14.104 2°49.003 20.3892 0.092325 0.47751 -1.766697
2008-05-06 09:42:02 51°14.107 2°49.019 20.395 0.092325 0.47751 -1.766697
2008-05-06 09:42:07 51°14.11 2°49.034 20.3918 0.092325 0.47751 -1.766697
2008-05-06 09:42:12 51°14.113 2°49.05 20.3784 0.092325 0.477526 -1.766697
2008-05-06 09:42:16 51°14.115 2°49.063 20.3937 0.092325 0.477533 -1.766697
2008-05-06 09:42:22 51°14.119 2°49.082 20.3871 0.092325 0.477541 -1.766697
2008-05-06 09:42:27 51°14.122 2°49.098 20.3919 0.092325 0.477549 -1.801521
2008-05-06 09:42:32 51°14.125 2°49.113 20.3949 0.092325 0.477557 -1.766697
2008-05-06 09:42:36 51°14.127 2°49.126 20.3884 0.092325 0.477557 -1.766697
2008-05-06 09:42:42 51°14.131 2°49.145 20.3893 0.092325 0.477573 -1.766697
2008-05-06 09:42:47 51°14.133 2°49.161 20.396 0.092325 0.477573 -1.766697
2008-05-06 09:42:52 51°14.137 2°49.177 20.3924 0.092325 0.47758 -1.766697
2008-05-06 09:42:57 51°14.14 2°49.193 20.3972 0.092325 0.477588 -1.801521
2008-05-06 09:43:01 51°14.142 2°49.206 20.3874 0.092325 0.477596 -1.801521
2008-05-06 09:43:07 51°14.146 2°49.225 20.3885 0.092325 0.477612 -1.801521
2008-05-06 09:43:12 51°14.148 2°49.241 20.3934 0.092325 0.477612 -1.801521
2008-05-06 09:43:16 51°14.15 2°49.254 20.3906 0.092325 0.477619 -1.801521
2008-05-06 09:43:21 51°14.153 2°49.27 20.3951 0.092325 0.477627 -1.801521
2008-05-06 09:43:27 51°14.155 2°49.29 20.3915 0.092325 0.477635 -1.801521
2008-05-06 09:43:32 51°14.157 2°49.307 20.3993 0.092325 0.477643 -1.766697
2008-05-06 09:43:37 51°14.16 2°49.323 20.3972 0.092325 0.477643 -1.766697
2008-05-06 09:43:41 51°14.161 2°49.336 20.394 0.092325 0.477658 -1.766697
2008-05-06 09:43:47 51°14.164 2°49.356 20.3941 0.092325 0.477658 -1.766697
2008-05-06 09:43:52 51°14.166 2°49.373 20.3891 0.092325 0.477666 -1.766697
2008-05-06 09:43:57 51°14.168 2°49.389 20.4005 0.092325 0.477674 -1.766697
2008-05-06 09:44:02 51°14.169 2°49.406 20.3967 0.092325 0.477682 -1.766697
2008-05-06 09:44:07 51°14.171 2°49.422 20.394 0.092325 0.477682 -1.766697
2008-05-06 09:44:12 51°14.173 2°49.439 20.391 0.092325 0.47769 -1.766697
2008-05-06 09:44:17 51°14.175 2°49.456 20.3985 0.092325 0.477697 -1.766697
2008-05-06 09:44:22 51°14.177 2°49.472 20.3867 0.092325 0.477705 -1.801521
2008-05-06 09:44:27 51°14.179 2°49.489 20.3976 0.092325 0.477713 -1.801521
2008-05-06 09:44:32 51°14.181 2°49.506 20.3936 0.092325 0.477721 -1.801521
2008-05-06 09:44:36 51°14.182 2°49.519 20.3958 0.092325 0.477721 -1.801521
2008-05-06 09:44:41 51°14.184 2°49.536 20.3928 0.092325 0.477729 -1.766697
2008-05-06 09:44:47 51°14.186 2°49.556 20.3931 0.092325 0.477736 -1.801521
2008-05-06 09:44:52 51°14.188 2°49.572 20.395 0.092325 0.477744 -1.766697
2008-05-06 09:44:57 51°14.19 2°49.589 20.3936 0.092325 0.47776 -1.801521
2008-05-06 09:45:01 51°14.192 2°49.602 20.4029 0.092325 0.47776 -1.801521
2008-05-06 09:45:07 51°14.194 2°49.622 20.3941 0.092325 0.47776 -1.801521
2008-05-06 09:45:12 51°14.196 2°49.639 20.4014 0.092325 0.477768 -1.766697